| time (UTC) | temp F | wind direction | speed MPH | gust MPH | rain 1hr in | rain 24hr in | rain mn in | humidity % | barometer mb |
| 20260504070408 | 53 | 355 | 3.0 | 8.0 | 0.00 | 0.00 | 0.00 | 38 | 1013.5 |
| 20260504070350 | 53 | 355 | 3.0 | 8.0 | 0.00 | 0.00 | 0.00 | 38 | 1013.5 |
| 20260504070207 | 53 | 331 | 4.0 | 8.0 | 0.00 | 0.00 | 0.00 | 38 | 1013.5 |
| 20260504060232 | 57 | 308 | 9.0 | 14.0 | 0.00 | 0.00 | 0.00 | 30 | 1013.5 |
| 20260504060131 | 57 | 300 | 9.0 | 14.0 | 0.00 | 0.00 | 0.00 | 30 | 1013.5 |
| 20260504050724 | 60 | 246 | 7.0 | 14.0 | 0.00 | 0.00 | 0.00 | 27 | 1013.4 |
| 20260504050622 | 60 | 234 | 7.0 | 14.0 | 0.00 | 0.00 | 0.00 | 27 | 1013.4 |
| 20260504050522 | 60 | 252 | 7.0 | 14.0 | 0.00 | 0.00 | 0.00 | 26 | 1013.4 |
| 20260504050422 | 60 | 239 | 8.0 | 14.0 | 0.00 | 0.00 | 0.00 | 27 | 1013.5 |
| 20260504050341 | 60 | 269 | 8.0 | 14.0 | 0.00 | 0.00 | 0.00 | 27 | 1013.5 |
| 20260504050321 | 60 | 241 | 8.0 | 14.0 | 0.00 | 0.00 | 0.00 | 27 | 1013.5 |
| 20260504050216 | 60 | 267 | 7.0 | 14.0 | 0.00 | 0.00 | 0.00 | 26 | 1013.5 |
| 20260504050123 | 60 | 258 | 7.0 | 13.0 | 0.00 | 0.00 | 0.00 | 27 | 1013.5 |
| 20260504045925 | 60 | 241 | 7.0 | 13.0 | 0.00 | 0.00 | 0.00 | 27 | 1013.4 |
| 20260504045918 | 60 | 266 | 7.0 | 13.0 | 0.00 | 0.00 | 0.00 | 27 | 1013.5 |
| 20260504045708 | 60 | 244 | 7.0 | 13.0 | 0.00 | 0.00 | 0.00 | 27 | 1013.5 |
| 20260504045607 | 60 | 298 | 7.0 | 13.0 | 0.00 | 0.00 | 0.00 | 27 | 1013.5 |
| 20260504045508 | 60 | 236 | 7.0 | 13.0 | 0.00 | 0.00 | 0.00 | 27 | 1013.5 |
| 20260504045448 | 60 | 259 | 7.0 | 13.0 | 0.00 | 0.00 | 0.00 | 26 | 1013.5 |
| 20260504045308 | 60 | 254 | 6.0 | 11.0 | 0.00 | 0.00 | 0.00 | 27 | 1013.5 |
| 20260504045202 | 60 | 253 | 7.0 | 11.0 | 0.00 | 0.00 | 0.00 | 27 | 1013.5 |
| 20260504045102 | 60 | 250 | 7.0 | 11.0 | 0.00 | 0.00 | 0.00 | 27 | 1013.6 |
| 20260504045002 | 60 | 250 | 7.0 | 11.0 | 0.00 | 0.00 | 0.00 | 26 | 1013.5 |
| 20260504044913 | 60 | 286 | 7.0 | 11.0 | 0.00 | 0.00 | 0.00 | 27 | 1013.5 |
| 20260504044906 | 60 | 267 | 7.0 | 11.0 | 0.00 | 0.00 | 0.00 | 27 | 1013.5 |
| 20260504044656 | 60 | 265 | 7.0 | 11.0 | 0.00 | 0.00 | 0.00 | 27 | 1013.6 |
| 20260504044603 | 60 | 238 | 7.0 | 11.0 | 0.00 | 0.00 | 0.00 | 27 | 1013.6 |
| 20260504044356 | 60 | 250 | 7.0 | 11.0 | 0.00 | 0.00 | 0.00 | 27 | 1013.6 |
| 20260504044341 | 60 | 268 | 7.0 | 11.0 | 0.00 | 0.00 | 0.00 | 27 | 1013.6 |
| 20260504044304 | 60 | 269 | 7.0 | 11.0 | 0.00 | 0.00 | 0.00 | 27 | 1013.6 |
| 20260504043950 | 60 | 223 | 7.0 | 11.0 | 0.00 | 0.00 | 0.00 | 27 | 1013.6 |
| 20260504043851 | 60 | 243 | 7.0 | 11.0 | 0.00 | 0.00 | 0.00 | 27 | 1013.6 |
| 20260504043841 | 60 | 228 | 7.0 | 11.0 | 0.00 | 0.00 | 0.00 | 27 | 1013.6 |
| 20260504043750 | 60 | 240 | 7.0 | 11.0 | 0.00 | 0.00 | 0.00 | 27 | 1013.6 |
| 20260504043645 | 61 | 284 | 6.0 | 11.0 | 0.00 | 0.00 | 0.00 | 27 | 1013.6 |
| 20260504043543 | 61 | 270 | 6.0 | 11.0 | 0.00 | 0.00 | 0.00 | 27 | 1013.6 |
| 20260504043456 | 61 | 254 | 6.0 | 12.0 | 0.00 | 0.00 | 0.00 | 27 | 1013.6 |
| 20260504043345 | 61 | 277 | 6.0 | 12.0 | 0.00 | 0.00 | 0.00 | 27 | 1013.6 |
| 20260504043243 | 61 | 258 | 6.0 | 12.0 | 0.00 | 0.00 | 0.00 | 27 | 1013.6 |
| 20260504043138 | 61 | 244 | 6.0 | 12.0 | 0.00 | 0.00 | 0.00 | 27 | 1013.6 |
| 20260504043038 | 61 | 275 | 6.0 | 12.0 | 0.00 | 0.00 | 0.00 | 27 | 1013.5 |
| 20260504042949 | 61 | 244 | 6.0 | 12.0 | 0.00 | 0.00 | 0.00 | 27 | 1013.5 |
| 20260504042838 | 61 | 273 | 6.0 | 12.0 | 0.00 | 0.00 | 0.00 | 27 | 1013.6 |
| 20260504042738 | 61 | 252 | 6.0 | 12.0 | 0.00 | 0.00 | 0.00 | 26 | 1013.5 |
| 20260504042632 | 61 | 257 | 6.0 | 12.0 | 0.00 | 0.00 | 0.00 | 26 | 1013.6 |
| 20260504042532 | 61 | 265 | 6.0 | 11.0 | 0.00 | 0.00 | 0.00 | 26 | 1013.6 |
| 20260504042431 | 61 | 231 | 6.0 | 11.0 | 0.00 | 0.00 | 0.00 | 26 | 1013.6 |
| 20260504042342 | 61 | 284 | 6.0 | 11.0 | 0.00 | 0.00 | 0.00 | 27 | 1013.6 |
| 20260504042332 | 61 | 254 | 6.0 | 11.0 | 0.00 | 0.00 | 0.00 | 27 | 1013.6 |
| 20260504042231 | 61 | 254 | 6.0 | 11.0 | 0.00 | 0.00 | 0.00 | 27 | 1013.6 |
| 20260504042126 | 61 | 236 | 6.0 | 11.0 | 0.00 | 0.00 | 0.00 | 27 | 1013.6 |
| 20260504042026 | 61 | 247 | 6.0 | 11.0 | 0.00 | 0.00 | 0.00 | 27 | 1013.6 |
| 20260504041927 | 61 | 255 | 6.0 | 11.0 | 0.00 | 0.00 | 0.00 | 26 | 1013.6 |
| 20260504041841 | 61 | 253 | 6.0 | 11.0 | 0.00 | 0.00 | 0.00 | 26 | 1013.5 |
| 20260504041825 | 61 | 299 | 6.0 | 11.0 | 0.00 | 0.00 | 0.00 | 27 | 1013.5 |
| 20260504041725 | 61 | 252 | 6.0 | 11.0 | 0.00 | 0.00 | 0.00 | 27 | 1013.6 |
| 20260504041622 | 61 | 287 | 6.0 | 11.0 | 0.00 | 0.00 | 0.00 | 27 | 1013.7 |
| 20260504041522 | 61 | 264 | 6.0 | 11.0 | 0.00 | 0.00 | 0.00 | 27 | 1013.6 |
| 20260504041422 | 61 | 267 | 6.0 | 11.0 | 0.00 | 0.00 | 0.00 | 27 | 1013.6 |
| 20260504041341 | 61 | 261 | 6.0 | 11.0 | 0.00 | 0.00 | 0.00 | 27 | 1013.6 |
| 20260504041323 | 61 | 277 | 6.0 | 11.0 | 0.00 | 0.00 | 0.00 | 27 | 1013.6 |
| 20260504041219 | 61 | 261 | 6.0 | 11.0 | 0.00 | 0.00 | 0.00 | 27 | 1013.7 |
| 20260504041114 | 61 | 289 | 6.0 | 13.0 | 0.00 | 0.00 | 0.00 | 27 | 1013.6 |
| 20260504041014 | 61 | 234 | 6.0 | 13.0 | 0.00 | 0.00 | 0.00 | 27 | 1013.7 |
| 20260504040914 | 61 | 271 | 6.0 | 13.0 | 0.00 | 0.00 | 0.00 | 27 | 1013.7 |
| 20260504040842 | 61 | 264 | 6.0 | 13.0 | 0.00 | 0.00 | 0.00 | 27 | 1013.7 |
| 20260504040813 | 61 | 251 | 6.0 | 13.0 | 0.00 | 0.00 | 0.00 | 27 | 1013.7 |
| 20260504040714 | 61 | 245 | 6.0 | 13.0 | 0.00 | 0.00 | 0.00 | 27 | 1013.7 |
| 20260504040515 | 61 | 261 | 7.0 | 13.0 | 0.00 | 0.00 | 0.00 | 28 | 1013.9 |
| 20260504040339 | 61 | 285 | 7.0 | 13.0 | 0.00 | 0.00 | 0.00 | 28 | 1013.9 |
| 20260504040308 | 61 | 237 | 7.0 | 13.0 | 0.00 | 0.00 | 0.00 | 28 | 1013.9 |
| 20260504040207 | 61 | 254 | 7.0 | 12.0 | 0.00 | 0.00 | 0.00 | 28 | 1014.0 |
| 20260504040100 | 62 | 279 | 7.0 | 12.0 | 0.00 | 0.00 | 0.00 | 28 | 1014.0 |
| 20260504035959 | 62 | 251 | 8.0 | 13.0 | 0.00 | 0.00 | 0.00 | 28 | 1014.0 |
| 20260504035900 | 62 | 279 | 8.0 | 13.0 | 0.00 | 0.00 | 0.00 | 28 | 1014.0 |
| 20260504035838 | 62 | 294 | 8.0 | 13.0 | 0.00 | 0.00 | 0.00 | 28 | 1013.9 |
| 20260504035800 | 62 | 250 | 8.0 | 13.0 | 0.00 | 0.00 | 0.00 | 28 | 1013.9 |
| 20260504035658 | 62 | 316 | 8.0 | 13.0 | 0.00 | 0.00 | 0.00 | 28 | 1014.0 |
| 20260504035554 | 62 | 284 | 8.0 | 13.0 | 0.00 | 0.00 | 0.00 | 27 | 1014.1 |
| 20260504035453 | 62 | 288 | 8.0 | 13.0 | 0.00 | 0.00 | 0.00 | 27 | 1014.0 |
| 20260504035354 | 62 | 295 | 8.0 | 13.0 | 0.00 | 0.00 | 0.00 | 27 | 1014.1 |
| 20260504035333 | 62 | 282 | 8.0 | 13.0 | 0.00 | 0.00 | 0.00 | 27 | 1014.1 |
| 20260504035254 | 62 | 305 | 8.0 | 13.0 | 0.00 | 0.00 | 0.00 | 27 | 1014.1 |
| 20260504035156 | 62 | 273 | 8.0 | 13.0 | 0.00 | 0.00 | 0.00 | 27 | 1014.0 |
| 20260504034948 | 62 | 269 | 8.0 | 12.0 | 0.00 | 0.00 | 0.00 | 27 | 1014.1 |
| 20260504034848 | 62 | 277 | 8.0 | 14.0 | 0.00 | 0.00 | 0.00 | 27 | 1014.0 |
| 20260504034827 | 62 | 258 | 8.0 | 14.0 | 0.00 | 0.00 | 0.00 | 28 | 1014.0 |
| 20260504034748 | 62 | 296 | 8.0 | 14.0 | 0.00 | 0.00 | 0.00 | 28 | 1014.1 |
| 20260504034649 | 62 | 283 | 8.0 | 14.0 | 0.00 | 0.00 | 0.00 | 27 | 1014.1 |
| 20260504034441 | 62 | 239 | 8.0 | 14.0 | 0.00 | 0.00 | 0.00 | 27 | 1014.1 |
| 20260504034341 | 62 | 259 | 8.0 | 14.0 | 0.00 | 0.00 | 0.00 | 27 | 1014.1 |
| 20260504034321 | 62 | 263 | 8.0 | 14.0 | 0.00 | 0.00 | 0.00 | 27 | 1014.1 |
| 20260504034242 | 62 | 224 | 8.0 | 14.0 | 0.00 | 0.00 | 0.00 | 27 | 1014.1 |
| 20260504034141 | 62 | 231 | 8.0 | 14.0 | 0.00 | 0.00 | 0.00 | 27 | 1014.1 |
| 20260504034042 | 62 | 238 | 8.0 | 14.0 | 0.00 | 0.00 | 0.00 | 27 | 1014.1 |
| 20260504033846 | 62 | 250 | 8.0 | 14.0 | 0.00 | 0.00 | 0.00 | 27 | 1014.1 |
| 20260504033840 | 62 | 240 | 8.0 | 14.0 | 0.00 | 0.00 | 0.00 | 27 | 1014.1 |
| 20260504033638 | 62 | 239 | 9.0 | 14.0 | 0.00 | 0.00 | 0.00 | 27 | 1014.1 |
| 20260504033430 | 62 | 263 | 8.0 | 14.0 | 0.00 | 0.00 | 0.00 | 28 | 1014.0 |
| 20260504033330 | 62 | 234 | 8.0 | 15.0 | 0.00 | 0.00 | 0.00 | 27 | 1014.1 |
| 20260504033308 | 62 | 238 | 8.0 | 15.0 | 0.00 | 0.00 | 0.00 | 27 | 1014.1 |
| 20260504033230 | 62 | 265 | 8.0 | 15.0 | 0.00 | 0.00 | 0.00 | 27 | 1014.0 |
| 20260504033139 | 62 | 234 | 8.0 | 15.0 | 0.00 | 0.00 | 0.00 | 28 | 1014.1 |
| 20260504032910 | 61 | 265 | 8.0 | 15.0 | 0.00 | 0.00 | 0.00 | 28 | 1014.1 |
| 20260504032724 | 61 | 229 | 8.0 | 15.0 | 0.00 | 0.00 | 0.00 | 28 | 1014.1 |
| 20260504032624 | 61 | 297 | 8.0 | 15.0 | 0.00 | 0.00 | 0.00 | 28 | 1014.1 |
| 20260504032518 | 61 | 228 | 8.0 | 15.0 | 0.00 | 0.00 | 0.00 | 28 | 1014.1 |
| 20260504032424 | 61 | 263 | 8.0 | 15.0 | 0.00 | 0.00 | 0.00 | 28 | 1014.1 |
| 20260504032257 | 61 | 243 | 8.0 | 15.0 | 0.00 | 0.00 | 0.00 | 28 | 1014.1 |
| 20260504032218 | 61 | 246 | 8.0 | 15.0 | 0.00 | 0.00 | 0.00 | 28 | 1014.1 |
| 20260504032117 | 61 | 240 | 8.0 | 15.0 | 0.00 | 0.00 | 0.00 | 28 | 1014.1 |
| 20260504032012 | 61 | 281 | 8.0 | 15.0 | 0.00 | 0.00 | 0.00 | 28 | 1014.1 |
| 20260504031913 | 61 | 252 | 7.0 | 15.0 | 0.00 | 0.00 | 0.00 | 28 | 1014.1 |
| 20260504031812 | 61 | 221 | 7.0 | 15.0 | 0.00 | 0.00 | 0.00 | 28 | 1014.1 |
| 20260504031750 | 61 | 244 | 7.0 | 15.0 | 0.00 | 0.00 | 0.00 | 28 | 1014.0 |
| 20260504031712 | 61 | 241 | 7.0 | 15.0 | 0.00 | 0.00 | 0.00 | 29 | 1014.0 |
| 20260504031611 | 60 | 284 | 6.0 | 15.0 | 0.00 | 0.00 | 0.00 | 29 | 1014.1 |
| 20260504031514 | 60 | 254 | 5.0 | 15.0 | 0.00 | 0.00 | 0.00 | 28 | 1014.0 |
| 20260504031351 | 60 | 256 | 4.0 | 11.0 | 0.00 | 0.00 | 0.00 | 29 | 1014.0 |
| 20260504031213 | 60 | 233 | 4.0 | 11.0 | 0.00 | 0.00 | 0.00 | 29 | 1014.0 |
| 20260504031001 | 60 | 229 | 3.0 | 10.0 | 0.00 | 0.00 | 0.00 | 30 | 1014.1 |
| 20260504030900 | 60 | 266 | 3.0 | 7.0 | 0.00 | 0.00 | 0.00 | 31 | 1014.1 |
| 20260504030810 | 60 | 200 | 3.0 | 7.0 | 0.00 | 0.00 | 0.00 | 31 | 1014.1 |
| 20260504030803 | 60 | 234 | 3.0 | 7.0 | 0.00 | 0.00 | 0.00 | 31 | 1014.1 |
| 20260504030559 | 60 | 222 | 3.0 | 7.0 | 0.00 | 0.00 | 0.00 | 31 | 1014.0 |
| 20260504030454 | 60 | 196 | 3.0 | 7.0 | 0.00 | 0.00 | 0.00 | 31 | 1014.0 |
| 20260504030354 | 60 | 200 | 3.0 | 7.0 | 0.00 | 0.00 | 0.00 | 31 | 1014.1 |
| 20260504030254 | 60 | 210 | 3.0 | 7.0 | 0.00 | 0.00 | 0.00 | 32 | 1014.0 |
| 20260504030234 | 60 | 211 | 3.0 | 7.0 | 0.00 | 0.00 | 0.00 | 32 | 1014.0 |
| 20260504030154 | 60 | 184 | 3.0 | 7.0 | 0.00 | 0.00 | 0.00 | 32 | 1014.0 |
| 20260504030053 | 60 | 215 | 3.0 | 7.0 | 0.00 | 0.00 | 0.00 | 32 | 1014.0 |
| 20260504025948 | 60 | 204 | 2.0 | 7.0 | 0.00 | 0.00 | 0.00 | 31 | 1014.0 |
| 20260504025848 | 60 | 190 | 2.0 | 7.0 | 0.00 | 0.00 | 0.00 | 30 | 1014.0 |
| 20260504025726 | 60 | 195 | 2.0 | 7.0 | 0.00 | 0.00 | 0.00 | 30 | 1014.0 |
| 20260504025649 | 60 | 195 | 3.0 | 7.0 | 0.00 | 0.00 | 0.00 | 30 | 1014.0 |
| 20260504025547 | 60 | 242 | 2.0 | 7.0 | 0.00 | 0.00 | 0.00 | 30 | 1014.0 |
| 20260504025441 | 60 | 205 | 2.0 | 7.0 | 0.00 | 0.00 | 0.00 | 30 | 1014.0 |
| 20260504025350 | 60 | 201 | 3.0 | 7.0 | 0.00 | 0.00 | 0.00 | 30 | 1014.0 |
| 20260504025221 | 60 | 214 | 3.0 | 7.0 | 0.00 | 0.00 | 0.00 | 30 | 1014.0 |
| 20260504025141 | 60 | 213 | 3.0 | 7.0 | 0.00 | 0.00 | 0.00 | 31 | 1014.0 |
| 20260504025044 | 60 | 213 | 3.0 | 7.0 | 0.00 | 0.00 | 0.00 | 31 | 1013.9 |
| 20260504024842 | 60 | 215 | 3.0 | 7.0 | 0.00 | 0.00 | 0.00 | 30 | 1014.0 |
| 20260504024714 | 60 | 242 | 3.0 | 7.0 | 0.00 | 0.00 | 0.00 | 31 | 1014.0 |
| 20260504024645 | 60 | 259 | 3.0 | 7.0 | 0.00 | 0.00 | 0.00 | 30 | 1013.9 |
| 20260504024333 | 60 | 198 | 3.0 | 7.0 | 0.00 | 0.00 | 0.00 | 30 | 1013.9 |
| 20260504024232 | 60 | 188 | 3.0 | 7.0 | 0.00 | 0.00 | 0.00 | 30 | 1013.9 |
| 20260504024208 | 60 | 223 | 3.0 | 7.0 | 0.00 | 0.00 | 0.00 | 30 | 1013.9 |
| 20260504024132 | 60 | 223 | 3.0 | 7.0 | 0.00 | 0.00 | 0.00 | 30 | 1014.0 |
| 20260504024029 | 60 | 246 | 3.0 | 7.0 | 0.00 | 0.00 | 0.00 | 30 | 1013.9 |
| 20260504023924 | 60 | 248 | 3.0 | 8.0 | 0.00 | 0.00 | 0.00 | 30 | 1013.9 |
| 20260504023831 | 61 | 259 | 4.0 | 8.0 | 0.00 | 0.00 | 0.00 | 30 | 1013.9 |
| 20260504023703 | 61 | 245 | 4.0 | 10.0 | 0.00 | 0.00 | 0.00 | 30 | 1014.0 |
| 20260504023624 | 61 | 236 | 4.0 | 10.0 | 0.00 | 0.00 | 0.00 | 30 | 1014.0 |
| 20260504023527 | 61 | 236 | 4.0 | 10.0 | 0.00 | 0.00 | 0.00 | 30 | 1013.9 |
| 20260504023318 | 61 | 198 | 4.0 | 10.0 | 0.00 | 0.00 | 0.00 | 31 | 1013.9 |
| 20260504023303 | 61 | 220 | 4.0 | 10.0 | 0.00 | 0.00 | 0.00 | 31 | 1013.9 |
| 20260504023118 | 61 | 194 | 4.0 | 10.0 | 0.00 | 0.00 | 0.00 | 31 | 1013.9 |
| 20260504023017 | 61 | 168 | 4.0 | 10.0 | 0.00 | 0.00 | 0.00 | 30 | 1013.9 |
| 20260504022920 | 61 | 186 | 4.0 | 10.0 | 0.00 | 0.00 | 0.00 | 31 | 1014.0 |
| 20260504022712 | 61 | 220 | 4.0 | 9.0 | 0.00 | 0.00 | 0.00 | 31 | 1014.0 |
| 20260504022652 | 61 | 205 | 4.0 | 9.0 | 0.00 | 0.00 | 0.00 | 31 | 1014.0 |
| 20260504022618 | 61 | 208 | 4.0 | 9.0 | 0.00 | 0.00 | 0.00 | 31 | 1014.0 |
| 20260504022407 | 61 | 191 | 4.0 | 9.0 | 0.00 | 0.00 | 0.00 | 30 | 1014.1 |
| 20260504022307 | 61 | 201 | 4.0 | 9.0 | 0.00 | 0.00 | 0.00 | 31 | 1014.0 |
| 20260504022207 | 62 | 213 | 3.0 | 9.0 | 0.00 | 0.00 | 0.00 | 31 | 1014.0 |
| 20260504022144 | 62 | 202 | 3.0 | 9.0 | 0.00 | 0.00 | 0.00 | 31 | 1014.0 |
| 20260504022106 | 62 | 214 | 3.0 | 9.0 | 0.00 | 0.00 | 0.00 | 30 | 1014.0 |
| 20260504022007 | 62 | 207 | 3.0 | 9.0 | 0.00 | 0.00 | 0.00 | 30 | 1014.0 |
| 20260504021825 | 62 | 178 | 3.0 | 9.0 | 0.00 | 0.00 | 0.00 | 30 | 1014.1 |
| 20260504021712 | 62 | 197 | 2.0 | 6.0 | 0.00 | 0.00 | 0.00 | 29 | 1014.1 |
| 20260504021353 | 62 | 219 | 2.0 | 7.0 | 0.00 | 0.00 | 0.00 | 29 | 1014.1 |
| 20260504021253 | 62 | 236 | 2.0 | 7.0 | 0.00 | 0.00 | 0.00 | 28 | 1014.1 |
| 20260504021134 | 62 | 205 | 3.0 | 7.0 | 0.00 | 0.00 | 0.00 | 28 | 1014.1 |
| 20260504021054 | 62 | 233 | 3.0 | 7.0 | 0.00 | 0.00 | 0.00 | 28 | 1014.1 |
| 20260504020958 | 62 | 224 | 3.0 | 7.0 | 0.00 | 0.00 | 0.00 | 28 | 1014.1 |
| 20260504020806 | 63 | 230 | 3.0 | 7.0 | 0.00 | 0.00 | 0.00 | 28 | 1014.0 |
| 20260504020758 | 63 | 227 | 3.0 | 7.0 | 0.00 | 0.00 | 0.00 | 28 | 1014.0 |
| 20260504020447 | 63 | 211 | 3.0 | 7.0 | 0.00 | 0.00 | 0.00 | 28 | 1013.9 |
| 20260504020348 | 63 | 197 | 3.0 | 8.0 | 0.00 | 0.00 | 0.00 | 28 | 1013.9 |
| 20260504020142 | 63 | 178 | 4.0 | 12.0 | 0.00 | 0.00 | 0.00 | 27 | 1013.9 |
| 20260504020120 | 63 | 185 | 4.0 | 12.0 | 0.00 | 0.00 | 0.00 | 27 | 1013.9 |
| 20260504020043 | 64 | 185 | 5.0 | 12.0 | 0.00 | 0.00 | 0.00 | 27 | 1013.9 |
| 20260504015944 | 64 | 207 | 5.0 | 12.0 | 0.00 | 0.00 | 0.00 | 27 | 1013.9 |
| 20260504015742 | 64 | 181 | 5.0 | 12.0 | 0.00 | 0.00 | 0.00 | 26 | 1013.9 |
| 20260504015615 | 64 | 180 | 6.0 | 12.0 | 0.00 | 0.00 | 0.00 | 26 | 1013.7 |
| 20260504015536 | 64 | 217 | 6.0 | 12.0 | 0.00 | 0.00 | 0.00 | 25 | 1013.7 |
| 20260504015437 | 64 | 252 | 6.0 | 12.0 | 0.00 | 0.00 | 0.00 | 25 | 1013.7 |
| 20260504015332 | 64 | 262 | 6.0 | 12.0 | 0.00 | 0.00 | 0.00 | 25 | 1013.7 |
| 20260504015233 | 64 | 235 | 5.0 | 12.0 | 0.00 | 0.00 | 0.00 | 25 | 1013.7 |
| 20260504015216 | 64 | 252 | 5.0 | 12.0 | 0.00 | 0.00 | 0.00 | 26 | 1013.7 |
| 20260504015032 | 64 | 252 | 5.0 | 11.0 | 0.00 | 0.00 | 0.00 | 26 | 1013.7 |
| 20260504014930 | 64 | 234 | 5.0 | 11.0 | 0.00 | 0.00 | 0.00 | 26 | 1013.7 |
| 20260504014823 | 64 | 260 | 4.0 | 11.0 | 0.00 | 0.00 | 0.00 | 26 | 1013.6 |
| 20260504014723 | 63 | 257 | 4.0 | 11.0 | 0.00 | 0.00 | 0.00 | 26 | 1013.6 |
| 20260504014625 | 63 | 273 | 4.0 | 11.0 | 0.00 | 0.00 | 0.00 | 26 | 1013.6 |
| 20260504014603 | 63 | 312 | 4.0 | 11.0 | 0.00 | 0.00 | 0.00 | 26 | 1013.6 |
| 20260504014524 | 63 | 315 | 4.0 | 11.0 | 0.00 | 0.00 | 0.00 | 26 | 1013.6 |
| 20260504014423 | 63 | 287 | 4.0 | 10.0 | 0.00 | 0.00 | 0.00 | 27 | 1013.6 |
| 20260504014321 | 63 | 284 | 4.0 | 8.0 | 0.00 | 0.00 | 0.00 | 28 | 1013.6 |
| 20260504014221 | 63 | 277 | 4.0 | 8.0 | 0.00 | 0.00 | 0.00 | 27 | 1013.6 |
| 20260504014205 | 63 | 302 | 3.0 | 8.0 | 0.00 | 0.00 | 0.00 | 27 | 1013.6 |
| 20260504014019 | 63 | 261 | 3.0 | 8.0 | 0.00 | 0.00 | 0.00 | 26 | 1013.6 |
| 20260504013922 | 63 | 258 | 2.0 | 8.0 | 0.00 | 0.00 | 0.00 | 27 | 1013.6 |
| 20260504013712 | 63 | 284 | 2.0 | 8.0 | 0.00 | 0.00 | 0.00 | 27 | 1013.6 |
| 20260504013623 | 63 | 325 | 1.0 | 7.0 | 0.00 | 0.00 | 0.00 | 28 | 1013.5 |
| 20260504013616 | 63 | 264 | 1.0 | 7.0 | 0.00 | 0.00 | 0.00 | 28 | 1013.5 |
| 20260504013411 | 64 | 65 | 1.0 | 4.0 | 0.00 | 0.00 | 0.00 | 28 | 1013.5 |
| 20260504013306 | 64 | 65 | 1.0 | 4.0 | 0.00 | 0.00 | 0.00 | 28 | 1013.5 |
| 20260504013258 | 64 | 65 | 1.0 | 4.0 | 0.00 | 0.00 | 0.00 | 28 | 1013.5 |
| 20260504013005 | 64 | 65 | 1.0 | 4.0 | 0.00 | 0.00 | 0.00 | 27 | 1013.5 |
| 20260504012907 | 64 | 65 | 2.0 | 4.0 | 0.00 | 0.00 | 0.00 | 28 | 1013.5 |
| 20260504012720 | 64 | 65 | 2.0 | 4.0 | 0.00 | 0.00 | 0.00 | 27 | 1013.5 |
| 20260504012605 | 64 | 65 | 2.0 | 4.0 | 0.00 | 0.00 | 0.00 | 27 | 1013.5 |
| 20260504012359 | 64 | 65 | 2.0 | 4.0 | 0.00 | 0.00 | 0.00 | 27 | 1013.5 |
| 20260504012253 | 64 | 65 | 3.0 | 7.0 | 0.00 | 0.00 | 0.00 | 27 | 1013.5 |
| 20260504012154 | 65 | 65 | 3.0 | 7.0 | 0.00 | 0.00 | 0.00 | 28 | 1013.5 |
| 20260504012107 | 65 | 65 | 3.0 | 7.0 | 0.00 | 0.00 | 0.00 | 28 | 1013.6 |
| 20260504012059 | 65 | 65 | 3.0 | 7.0 | 0.00 | 0.00 | 0.00 | 27 | 1013.6 |
| 20260504011854 | 65 | 65 | 3.0 | 9.0 | 0.00 | 0.00 | 0.00 | 27 | 1013.5 |
| 20260504011749 | 65 | 65 | 3.0 | 9.0 | 0.00 | 0.00 | 0.00 | 27 | 1013.5 |
| 20260504011648 | 65 | 65 | 3.0 | 9.0 | 0.00 | 0.00 | 0.00 | 27 | 1013.6 |
| 20260504011547 | 65 | 68 | 4.0 | 9.0 | 0.00 | 0.00 | 0.00 | 27 | 1013.6 |
| 20260504011526 | 65 | 53 | 4.0 | 9.0 | 0.00 | 0.00 | 0.00 | 28 | 1013.6 |
| 20260504011448 | 65 | 53 | 4.0 | 9.0 | 0.00 | 0.00 | 0.00 | 27 | 1013.6 |
| 20260504011349 | 65 | 59 | 4.0 | 9.0 | 0.00 | 0.00 | 0.00 | 27 | 1013.6 |
| 20260504011159 | 65 | 36 | 4.0 | 9.0 | 0.00 | 0.00 | 0.00 | 26 | 1013.6 |
| 20260504011152 | 65 | 76 | 4.0 | 10.0 | 0.00 | 0.00 | 0.00 | 26 | 1013.7 |
| 20260504010841 | 65 | 53 | 4.0 | 10.0 | 0.00 | 0.00 | 0.00 | 27 | 1013.7 |
| 20260504010738 | 65 | 338 | 5.0 | 10.0 | 0.00 | 0.00 | 0.00 | 27 | 1013.7 |
| 20260504010638 | 66 | 338 | 5.0 | 13.0 | 0.00 | 0.00 | 0.00 | 27 | 1013.9 |
| 20260504010537 | 66 | 355 | 6.0 | 13.0 | 0.00 | 0.00 | 0.00 | 26 | 1013.7 |
| 20260504010515 | 66 | 25 | 6.0 | 13.0 | 0.00 | 0.00 | 0.00 | 26 | 1013.7 |
| 20260504010438 | 66 | 44 | 6.0 | 13.0 | 0.00 | 0.00 | 0.00 | 26 | 1013.6 |
| 20260504010339 | 66 | 45 | 6.0 | 13.0 | 0.00 | 0.00 | 0.00 | 26 | 1013.7 |
| 20260504010130 | 66 | 54 | 6.0 | 13.0 | 0.00 | 0.00 | 0.00 | 26 | 1013.6 |
| 20260504010030 | 66 | 67 | 6.0 | 13.0 | 0.00 | 0.00 | 0.00 | 25 | 1013.6 |
| 20260504010008 | 66 | 51 | 6.0 | 13.0 | 0.00 | 0.00 | 0.00 | 25 | 1013.6 |
| 20260504005930 | 66 | 42 | 6.0 | 13.0 | 0.00 | 0.00 | 0.00 | 25 | 1013.7 |
| 20260504005831 | 66 | 5 | 6.0 | 13.0 | 0.00 | 0.00 | 0.00 | 25 | 1013.7 |
| 20260504005630 | 65 | 323 | 5.0 | 12.0 | 0.00 | 0.00 | 0.00 | 26 | 1013.7 |
| 20260504005503 | 65 | 5 | 5.0 | 10.0 | 0.00 | 0.00 | 0.00 | 26 | 1013.7 |
| 20260504005433 | 65 | 18 | 4.0 | 10.0 | 0.00 | 0.00 | 0.00 | 26 | 1013.7 |
| 20260504005218 | 65 | 22 | 4.0 | 10.0 | 0.00 | 0.00 | 0.00 | 26 | 1014.0 |
| 20260504005117 | 65 | 355 | 4.0 | 9.0 | 0.00 | 0.00 | 0.00 | 27 | 1013.7 |
| 20260504005017 | 65 | 346 | 3.0 | 9.0 | 0.00 | 0.00 | 0.00 | 27 | 1013.9 |
| 20260504004958 | 65 | 355 | 3.0 | 9.0 | 0.00 | 0.00 | 0.00 | 26 | 1013.9 |
| 20260504004918 | 65 | 319 | 4.0 | 9.0 | 0.00 | 0.00 | 0.00 | 26 | 1013.9 |
| 20260504004818 | 65 | 298 | 4.0 | 9.0 | 0.00 | 0.00 | 0.00 | 27 | 1013.9 |
| 20260504004711 | 65 | 15 | 4.0 | 9.0 | 0.00 | 0.00 | 0.00 | 27 | 1013.9 |
| 20260504004611 | 65 | 342 | 4.0 | 9.0 | 0.00 | 0.00 | 0.00 | 26 | 1013.9 |
| 20260504004511 | 65 | 46 | 3.0 | 9.0 | 0.00 | 0.00 | 0.00 | 26 | 1013.9 |
| 20260504004452 | 65 | 46 | 3.0 | 9.0 | 0.00 | 0.00 | 0.00 | 27 | 1013.9 |
| 20260504004411 | 65 | 55 | 3.0 | 9.0 | 0.00 | 0.00 | 0.00 | 27 | 1013.9 |
| 20260504004312 | 65 | 46 | 3.0 | 6.0 | 0.00 | 0.00 | 0.00 | 26 | 1013.9 |
| 20260504004215 | 66 | 40 | 3.0 | 6.0 | 0.00 | 0.00 | 0.00 | 26 | 1013.9 |
| 20260504004007 | 66 | 17 | 2.0 | 6.0 | 0.00 | 0.00 | 0.00 | 26 | 1014.0 |
| 20260504003945 | 66 | 10 | 2.0 | 6.0 | 0.00 | 0.00 | 0.00 | 26 | 1013.9 |
| 20260504003909 | 66 | 49 | 2.0 | 8.0 | 0.00 | 0.00 | 0.00 | 26 | 1013.9 |
| 20260504003806 | 66 | 17 | 3.0 | 8.0 | 0.00 | 0.00 | 0.00 | 26 | 1013.9 |
| 20260504003703 | 66 | 19 | 3.0 | 8.0 | 0.00 | 0.00 | 0.00 | 25 | 1013.9 |
| 20260504003604 | 66 | 0 | 3.0 | 8.0 | 0.00 | 0.00 | 0.00 | 26 | 1013.9 |
| 20260504003546 | 65 | 0 | 3.0 | 8.0 | 0.00 | 0.00 | 0.00 | 26 | 1013.9 |
| 20260504003409 | 65 | 331 | 4.0 | 10.0 | 0.00 | 0.00 | 0.00 | 27 | 1013.9 |
| 20260504003156 | 65 | 331 | 4.0 | 10.0 | 0.00 | 0.00 | 0.00 | 27 | 1013.9 |
| 20260504003053 | 65 | 331 | 4.0 | 10.0 | 0.00 | 0.00 | 0.00 | 26 | 1013.9 |
| 20260504002953 | 65 | 344 | 5.0 | 11.0 | 0.00 | 0.00 | 0.00 | 26 | 1013.9 |
| 20260504002933 | 65 | 37 | 5.0 | 11.0 | 0.00 | 0.00 | 0.00 | 26 | 1013.9 |
| 20260504002854 | 65 | 15 | 5.0 | 11.0 | 0.00 | 0.00 | 0.00 | 26 | 1013.9 |
| 20260504002753 | 65 | 5 | 5.0 | 11.0 | 0.00 | 0.00 | 0.00 | 27 | 1014.0 |
| 20260504002655 | 65 | 10 | 6.0 | 11.0 | 0.00 | 0.00 | 0.00 | 26 | 1014.0 |
| 20260504002448 | 65 | 331 | 6.0 | 11.0 | 0.00 | 0.00 | 0.00 | 26 | 1014.0 |
| 20260504002427 | 65 | 355 | 6.0 | 11.0 | 0.00 | 0.00 | 0.00 | 26 | 1014.0 |
| 20260504002348 | 65 | 323 | 5.0 | 11.0 | 0.00 | 0.00 | 0.00 | 25 | 1013.9 |
| 20260504002247 | 65 | 316 | 5.0 | 11.0 | 0.00 | 0.00 | 0.00 | 26 | 1014.0 |
| 20260504002142 | 65 | 5 | 5.0 | 11.0 | 0.00 | 0.00 | 0.00 | 27 | 1014.0 |
| 20260504002041 | 65 | 348 | 5.0 | 11.0 | 0.00 | 0.00 | 0.00 | 27 | 1014.0 |
| 20260504001942 | 65 | 55 | 5.0 | 11.0 | 0.00 | 0.00 | 0.00 | 27 | 1014.0 |
| 20260504001921 | 65 | 49 | 5.0 | 11.0 | 0.00 | 0.00 | 0.00 | 27 | 1014.0 |
| 20260504001842 | 65 | 16 | 5.0 | 11.0 | 0.00 | 0.00 | 0.00 | 27 | 1014.0 |
| 20260504001741 | 65 | 32 | 5.0 | 12.0 | 0.00 | 0.00 | 0.00 | 27 | 1014.0 |
| 20260504001637 | 65 | 34 | 5.0 | 12.0 | 0.00 | 0.00 | 0.00 | 27 | 1014.1 |
| 20260504001535 | 65 | 24 | 5.0 | 12.0 | 0.00 | 0.00 | 0.00 | 27 | 1014.1 |
| 20260504001436 | 65 | 30 | 4.0 | 12.0 | 0.00 | 0.00 | 0.00 | 27 | 1014.1 |
| 20260504001415 | 65 | 17 | 4.0 | 12.0 | 0.00 | 0.00 | 0.00 | 27 | 1014.1 |
| 20260504001336 | 65 | 5 | 5.0 | 12.0 | 0.00 | 0.00 | 0.00 | 28 | 1014.2 |
| 20260504001236 | 65 | 32 | 5.0 | 12.0 | 0.00 | 0.00 | 0.00 | 28 | 1014.2 |
| 20260504001129 | 65 | 72 | 5.0 | 12.0 | 0.00 | 0.00 | 0.00 | 28 | 1014.1 |
| 20260504001030 | 65 | 5 | 5.0 | 12.0 | 0.00 | 0.00 | 0.00 | 27 | 1014.2 |
| 20260504000930 | 65 | 29 | 5.0 | 12.0 | 0.00 | 0.00 | 0.00 | 27 | 1014.2 |
| 20260504000909 | 65 | 313 | 5.0 | 12.0 | 0.00 | 0.00 | 0.00 | 27 | 1014.2 |
| 20260504000829 | 65 | 17 | 5.0 | 12.0 | 0.00 | 0.00 | 0.00 | 26 | 1014.2 |
| 20260504000730 | 65 | 64 | 5.0 | 10.0 | 0.00 | 0.00 | 0.00 | 26 | 1014.2 |
| 20260504000625 | 65 | 16 | 6.0 | 10.0 | 0.00 | 0.00 | 0.00 | 27 | 1014.2 |
| 20260504000525 | 65 | 13 | 6.0 | 10.0 | 0.00 | 0.00 | 0.00 | 26 | 1014.2 |
| 20260504000425 | 65 | 35 | 6.0 | 10.0 | 0.00 | 0.00 | 0.00 | 26 | 1014.2 |
| 20260504000402 | 65 | 17 | 6.0 | 10.0 | 0.00 | 0.00 | 0.00 | 26 | 1014.2 |
| 20260504000333 | 65 | 0 | 6.0 | 10.0 | 0.00 | 0.00 | 0.00 | 26 | 1014.1 |
| 20260504000018 | 66 | 40 | 6.0 | 10.0 | 0.00 | 0.00 | 0.00 | 26 | 1014.1 |
| 20260503235929 | 66 | 37 | 6.0 | 10.0 | 0.00 | 0.00 | 0.00 | 26 | 1014.1 |
| 20260503235922 | 66 | 49 | 6.0 | 10.0 | 0.00 | 0.00 | 0.00 | 26 | 1014.1 |
| 20260503235717 | 66 | 67 | 6.0 | 10.0 | 0.00 | 0.00 | 0.00 | 26 | 1014.2 |
| 20260503235615 | 66 | 59 | 6.0 | 10.0 | 0.00 | 0.00 | 0.00 | 26 | 1014.2 |
| 20260503235515 | 66 | 15 | 5.0 | 10.0 | 0.00 | 0.00 | 0.00 | 26 | 1014.2 |
| 20260503235416 | 66 | 23 | 5.0 | 10.0 | 0.00 | 0.00 | 0.00 | 27 | 1014.2 |
| 20260503235352 | 66 | 341 | 5.0 | 10.0 | 0.00 | 0.00 | 0.00 | 27 | 1014.2 |
| 20260503235314 | 66 | 21 | 5.0 | 10.0 | 0.00 | 0.00 | 0.00 | 26 | 1014.2 |
| 20260503235217 | 66 | 349 | 5.0 | 10.0 | 0.00 | 0.00 | 0.00 | 26 | 1014.2 |
| 20260503235010 | 66 | 29 | 5.0 | 10.0 | 0.00 | 0.00 | 0.00 | 27 | 1014.3 |
| 20260503234910 | 66 | 355 | 5.0 | 10.0 | 0.00 | 0.00 | 0.00 | 26 | 1014.3 |
| 20260503234844 | 66 | 0 | 5.0 | 10.0 | 0.00 | 0.00 | 0.00 | 26 | 1014.3 |
| 20260503234809 | 66 | 28 | 5.0 | 10.0 | 0.00 | 0.00 | 0.00 | 26 | 1014.3 |
| 20260503234705 | 66 | 26 | 5.0 | 11.0 | 0.00 | 0.00 | 0.00 | 26 | 1014.5 |
| 20260503234559 | 66 | 13 | 5.0 | 11.0 | 0.00 | 0.00 | 0.00 | 27 | 1014.5 |
| 20260503234501 | 66 | 34 | 5.0 | 11.0 | 0.00 | 0.00 | 0.00 | 26 | 1014.5 |
| 20260503234400 | 66 | 355 | 5.0 | 11.0 | 0.00 | 0.00 | 0.00 | 27 | 1014.6 |
| 20260503234339 | 66 | 355 | 5.0 | 11.0 | 0.00 | 0.00 | 0.00 | 27 | 1014.7 |
| 20260503234300 | 66 | 355 | 5.0 | 11.0 | 0.00 | 0.00 | 0.00 | 27 | 1014.7 |
| 20260503234159 | 66 | 322 | 5.0 | 11.0 | 0.00 | 0.00 | 0.00 | 26 | 1014.6 |
| 20260503234053 | 66 | 315 | 6.0 | 11.0 | 0.00 | 0.00 | 0.00 | 27 | 1014.7 |
| 20260503233954 | 66 | 291 | 6.0 | 13.0 | 0.00 | 0.00 | 0.00 | 27 | 1014.7 |
| 20260503233904 | 66 | 307 | 6.0 | 13.0 | 0.00 | 0.00 | 0.00 | 27 | 1014.7 |
| 20260503233857 | 66 | 355 | 7.0 | 13.0 | 0.00 | 0.00 | 0.00 | 27 | 1014.7 |
| 20260503233653 | 66 | 348 | 7.0 | 13.0 | 0.00 | 0.00 | 0.00 | 27 | 1014.6 |
| 20260503233455 | 66 | 5 | 8.0 | 13.0 | 0.00 | 0.00 | 0.00 | 27 | 1014.5 |
| 20260503233331 | 66 | 24 | 8.0 | 13.0 | 0.00 | 0.00 | 0.00 | 27 | 1014.3 |
| 20260503233248 | 66 | 330 | 8.0 | 13.0 | 0.00 | 0.00 | 0.00 | 27 | 1014.3 |
| 20260503233147 | 66 | 13 | 8.0 | 13.0 | 0.00 | 0.00 | 0.00 | 27 | 1014.2 |
| 20260503233042 | 66 | 5 | 8.0 | 13.0 | 0.00 | 0.00 | 0.00 | 26 | 1014.1 |
| 20260503232942 | 66 | 15 | 8.0 | 13.0 | 0.00 | 0.00 | 0.00 | 25 | 1014.0 |
| 20260503232841 | 66 | 65 | 9.0 | 13.0 | 0.00 | 0.00 | 0.00 | 25 | 1014.0 |
| 20260503232832 | 66 | 32 | 9.0 | 13.0 | 0.00 | 0.00 | 0.00 | 25 | 1014.0 |
| 20260503232742 | 66 | 40 | 9.0 | 16.0 | 0.00 | 0.00 | 0.00 | 25 | 1013.9 |
| 20260503232641 | 66 | 52 | 9.0 | 16.0 | 0.00 | 0.00 | 0.00 | 25 | 1013.9 |
| 20260503232542 | 66 | 34 | 8.0 | 16.0 | 0.00 | 0.00 | 0.00 | 25 | 1013.9 |
| 20260503232338 | 66 | 41 | 9.0 | 21.0 | 0.00 | 0.00 | 0.00 | 26 | 1013.9 |
| 20260503232331 | 66 | 53 | 9.0 | 21.0 | 0.00 | 0.00 | 0.00 | 26 | 1013.9 |
| 20260503232236 | 66 | 0 | 9.0 | 21.0 | 0.00 | 0.00 | 0.00 | 26 | 1013.9 |
| 20260503232136 | 66 | 24 | 9.0 | 21.0 | 0.00 | 0.00 | 0.00 | 26 | 1013.9 |
| 20260503232047 | 66 | 11 | 9.0 | 21.0 | 0.00 | 0.00 | 0.00 | 27 | 1013.9 |
| 20260503231829 | 67 | 11 | 9.0 | 21.0 | 0.00 | 0.00 | 0.00 | 27 | 1013.9 |
| 20260503231745 | 67 | 16 | 9.0 | 21.0 | 0.00 | 0.00 | 0.00 | 27 | 1013.9 |
| 20260503231331 | 67 | 30 | 12.0 | 24.0 | 0.00 | 0.00 | 0.00 | 25 | 1013.7 |
| 20260503231323 | 67 | 32 | 12.0 | 24.0 | 0.00 | 0.00 | 0.00 | 25 | 1013.7 |
| 20260503231223 | 67 | 355 | 12.0 | 24.0 | 0.00 | 0.00 | 0.00 | 24 | 1013.9 |
| 20260503231124 | 67 | 44 | 12.0 | 24.0 | 0.00 | 0.00 | 0.00 | 24 | 1013.9 |
| 20260503230938 | 67 | 5 | 12.0 | 24.0 | 0.00 | 0.00 | 0.00 | 24 | 1013.9 |
| 20260503230818 | 67 | 335 | 12.0 | 24.0 | 0.00 | 0.00 | 0.00 | 24 | 1014.0 |
| 20260503230724 | 67 | 24 | 12.0 | 24.0 | 0.00 | 0.00 | 0.00 | 24 | 1014.1 |
| 20260503230512 | 68 | 9 | 10.0 | 24.0 | 0.00 | 0.00 | 0.00 | 24 | 1014.1 |
| 20260503230437 | 68 | 332 | 9.0 | 24.0 | 0.00 | 0.00 | 0.00 | 24 | 1014.1 |
| 20260503230311 | 68 | 0 | 8.0 | 21.0 | 0.00 | 0.00 | 0.00 | 23 | 1014.2 |
| 20260503230211 | 68 | 338 | 7.0 | 21.0 | 0.00 | 0.00 | 0.00 | 22 | 1014.1 |
| 20260503230121 | 68 | 10 | 7.0 | 20.0 | 0.00 | 0.00 | 0.00 | 21 | 1014.1 |
| 20260503225828 | 68 | 355 | 5.0 | 14.0 | 0.00 | 0.00 | 0.00 | 21 | 1014.1 |
| 20260503225813 | 68 | 22 | 5.0 | 11.0 | 0.00 | 0.00 | 0.00 | 21 | 1014.1 |
| 20260503225605 | 68 | 336 | 5.0 | 10.0 | 0.00 | 0.00 | 0.00 | 22 | 1014.1 |
| 20260503225459 | 68 | 338 | 5.0 | 10.0 | 0.00 | 0.00 | 0.00 | 21 | 1014.1 |
| 20260503225359 | 68 | 36 | 5.0 | 10.0 | 0.00 | 0.00 | 0.00 | 22 | 1014.1 |
| 20260503225329 | 68 | 17 | 5.0 | 10.0 | 0.00 | 0.00 | 0.00 | 21 | 1014.1 |
| 20260503225259 | 68 | 342 | 5.0 | 10.0 | 0.00 | 0.00 | 0.00 | 21 | 1014.1 |
| 20260503225159 | 68 | 55 | 5.0 | 10.0 | 0.00 | 0.00 | 0.00 | 21 | 1014.2 |
| 20260503225059 | 69 | 26 | 5.0 | 10.0 | 0.00 | 0.00 | 0.00 | 20 | 1014.1 |
| 20260503224953 | 69 | 47 | 5.0 | 9.0 | 0.00 | 0.00 | 0.00 | 20 | 1014.1 |
| 20260503224854 | 69 | 44 | 4.0 | 9.0 | 0.00 | 0.00 | 0.00 | 20 | 1014.1 |
| 20260503224828 | 69 | 45 | 4.0 | 9.0 | 0.00 | 0.00 | 0.00 | 20 | 1014.1 |
| 20260503224801 | 69 | 36 | 4.0 | 10.0 | 0.00 | 0.00 | 0.00 | 20 | 1014.0 |
| 20260503224553 | 69 | 43 | 5.0 | 14.0 | 0.00 | 0.00 | 0.00 | 21 | 1014.1 |
| 20260503224447 | 69 | 36 | 4.0 | 14.0 | 0.00 | 0.00 | 0.00 | 21 | 1014.0 |
| 20260503224436 | 69 | 36 | 4.0 | 14.0 | 0.00 | 0.00 | 0.00 | 22 | 1013.9 |
| 20260503224247 | 69 | 16 | 4.0 | 14.0 | 0.00 | 0.00 | 0.00 | 21 | 1014.0 |
| 20260503224147 | 69 | 5 | 3.0 | 14.0 | 0.00 | 0.00 | 0.00 | 20 | 1014.0 |
| 20260503224048 | 69 | 32 | 3.0 | 14.0 | 0.00 | 0.00 | 0.00 | 20 | 1014.0 |
| 20260503223948 | 69 | 24 | 3.0 | 14.0 | 0.00 | 0.00 | 0.00 | 20 | 1013.9 |
| 20260503223936 | 70 | 44 | 3.0 | 14.0 | 0.00 | 0.00 | 0.00 | 20 | 1013.7 |
| 20260503223746 | 70 | 55 | 2.0 | 14.0 | 0.00 | 0.00 | 0.00 | 21 | 1013.9 |
| 20260503223645 | 70 | 138 | 1.0 | 8.0 | 0.00 | 0.00 | 0.00 | 20 | 1013.9 |
| 20260503223541 | 70 | 107 | 1.0 | 6.0 | 0.00 | 0.00 | 0.00 | 19 | 1013.9 |
| 20260503223444 | 70 | 323 | 2.0 | 5.0 | 0.00 | 0.00 | 0.00 | 21 | 1013.9 |
| 20260503223329 | 70 | 10 | 2.0 | 6.0 | 0.00 | 0.00 | 0.00 | 21 | 1013.9 |
| 20260503223237 | 70 | 34 | 2.0 | 7.0 | 0.00 | 0.00 | 0.00 | 22 | 1013.9 |
| 20260503223135 | 70 | 34 | 3.0 | 8.0 | 0.00 | 0.00 | 0.00 | 21 | 1013.9 |
| 20260503223034 | 70 | 311 | 3.0 | 8.0 | 0.00 | 0.00 | 0.00 | 19 | 1013.9 |
| 20260503222942 | 70 | 311 | 4.0 | 11.0 | 0.00 | 0.00 | 0.00 | 20 | 1013.9 |
| 20260503222936 | 70 | 311 | 5.0 | 11.0 | 0.00 | 0.00 | 0.00 | 20 | 1014.0 |
| 20260503222731 | 70 | 311 | 5.0 | 11.0 | 0.00 | 0.00 | 0.00 | 19 | 1014.0 |
| 20260503222629 | 70 | 311 | 5.0 | 11.0 | 0.00 | 0.00 | 0.00 | 19 | 1014.0 |
| 20260503222530 | 70 | 265 | 5.0 | 11.0 | 0.00 | 0.00 | 0.00 | 20 | 1014.1 |
| 20260503222429 | 70 | 273 | 5.0 | 11.0 | 0.00 | 0.00 | 0.00 | 21 | 1014.1 |
| 20260503222334 | 70 | 257 | 5.0 | 11.0 | 0.00 | 0.00 | 0.00 | 21 | 1014.1 |
| 20260503222329 | 70 | 250 | 5.0 | 11.0 | 0.00 | 0.00 | 0.00 | 21 | 1014.1 |
| 20260503222230 | 69 | 244 | 5.0 | 11.0 | 0.00 | 0.00 | 0.00 | 21 | 1014.1 |
| 20260503222129 | 69 | 259 | 6.0 | 15.0 | 0.00 | 0.00 | 0.00 | 22 | 1014.2 |
| 20260503222029 | 69 | 229 | 5.0 | 15.0 | 0.00 | 0.00 | 0.00 | 21 | 1014.1 |
| 20260503221929 | 69 | 271 | 5.0 | 15.0 | 0.00 | 0.00 | 0.00 | 20 | 1014.1 |
| 20260503221833 | 69 | 207 | 6.0 | 15.0 | 0.00 | 0.00 | 0.00 | 20 | 1014.1 |
| 20260503221829 | 69 | 215 | 6.0 | 15.0 | 0.00 | 0.00 | 0.00 | 20 | 1014.1 |
| 20260503221729 | 69 | 207 | 6.0 | 16.0 | 0.00 | 0.00 | 0.00 | 19 | 1014.1 |
| 20260503221630 | 69 | 191 | 8.0 | 26.0 | 0.00 | 0.00 | 0.00 | 20 | 1014.1 |
| 20260503221546 | 69 | 259 | 8.0 | 26.0 | 0.00 | 0.00 | 0.00 | 20 | 1014.2 |
| 20260503221432 | 69 | 208 | 8.0 | 26.0 | 0.00 | 0.00 | 0.00 | 19 | 1014.2 |
| 20260503221228 | 69 | 240 | 8.0 | 26.0 | 0.00 | 0.00 | 0.00 | 19 | 1014.2 |
| 20260503221127 | 69 | 260 | 8.0 | 26.0 | 0.00 | 0.00 | 0.00 | 20 | 1014.3 |
| 20260503221034 | 69 | 257 | 8.0 | 26.0 | 0.00 | 0.00 | 0.00 | 20 | 1014.2 |
| 20260503220825 | 69 | 346 | 8.0 | 26.0 | 0.00 | 0.00 | 0.00 | 19 | 1014.6 |
| 20260503220732 | 69 | 298 | 7.0 | 26.0 | 0.00 | 0.00 | 0.00 | 20 | 1014.7 |
| 20260503220521 | 69 | 273 | 7.0 | 16.0 | 0.00 | 0.00 | 0.00 | 20 | 1014.7 |
| 20260503220421 | 69 | 312 | 7.0 | 16.0 | 0.00 | 0.00 | 0.00 | 20 | 1014.5 |
| 20260503220329 | 69 | 286 | 7.0 | 16.0 | 0.00 | 0.00 | 0.00 | 20 | 1014.6 |
| 20260503220322 | 69 | 290 | 7.0 | 16.0 | 0.00 | 0.00 | 0.00 | 20 | 1014.6 |
| 20260503220221 | 69 | 291 | 7.0 | 16.0 | 0.00 | 0.00 | 0.00 | 19 | 1014.7 |
| 20260503220121 | 69 | 279 | 7.0 | 16.0 | 0.00 | 0.00 | 0.00 | 19 | 1014.5 |
| 20260503220021 | 69 | 207 | 7.0 | 16.0 | 0.00 | 0.00 | 0.00 | 20 | 1014.6 |
| 20260503215920 | 69 | 181 | 7.0 | 16.0 | 0.00 | 0.00 | 0.00 | 20 | 1014.6 |
| 20260503215829 | 69 | 232 | 8.0 | 16.0 | 0.00 | 0.00 | 0.00 | 19 | 1014.9 |
| 20260503215819 | 69 | 249 | 8.0 | 22.0 | 0.00 | 0.00 | 0.00 | 20 | 1014.9 |
| 20260503215719 | 69 | 246 | 8.0 | 22.0 | 0.00 | 0.00 | 0.00 | 20 | 1014.8 |
| 20260503215619 | 69 | 254 | 9.0 | 22.0 | 0.00 | 0.00 | 0.00 | 19 | 1014.8 |
| 20260503215520 | 69 | 261 | 9.0 | 22.0 | 0.00 | 0.00 | 0.00 | 20 | 1014.8 |
| 20260503215419 | 69 | 168 | 9.0 | 22.0 | 0.00 | 0.00 | 0.00 | 20 | 1014.6 |
| 20260503215329 | 70 | 192 | 9.0 | 22.0 | 0.00 | 0.00 | 0.00 | 19 | 1014.6 |
| 20260503215316 | 70 | 171 | 9.0 | 22.0 | 0.00 | 0.00 | 0.00 | 19 | 1014.6 |
| 20260503215224 | 70 | 178 | 10.0 | 22.0 | 0.00 | 0.00 | 0.00 | 20 | 1014.7 |
| 20260503215015 | 70 | 205 | 10.0 | 22.0 | 0.00 | 0.00 | 0.00 | 20 | 1014.7 |
| 20260503214917 | 70 | 244 | 10.0 | 22.0 | 0.00 | 0.00 | 0.00 | 19 | 1014.8 |
| 20260503214829 | 70 | 218 | 9.0 | 22.0 | 0.00 | 0.00 | 0.00 | 20 | 1014.8 |
| 20260503214815 | 70 | 217 | 9.0 | 21.0 | 0.00 | 0.00 | 0.00 | 20 | 1014.8 |
| 20260503214716 | 70 | 226 | 8.0 | 16.0 | 0.00 | 0.00 | 0.00 | 19 | 1014.9 |
| 20260503214615 | 70 | 228 | 8.0 | 16.0 | 0.00 | 0.00 | 0.00 | 20 | 1014.8 |
| 20260503214516 | 70 | 267 | 7.0 | 15.0 | 0.00 | 0.00 | 0.00 | 18 | 1014.8 |
| 20260503214416 | 70 | 255 | 8.0 | 15.0 | 0.00 | 0.00 | 0.00 | 18 | 1014.8 |
| 20260503214329 | 70 | 262 | 8.0 | 15.0 | 0.00 | 0.00 | 0.00 | 18 | 1014.8 |
| 20260503214322 | 70 | 246 | 8.0 | 15.0 | 0.00 | 0.00 | 0.00 | 18 | 1014.8 |
| 20260503214116 | 70 | 257 | 9.0 | 21.0 | 0.00 | 0.00 | 0.00 | 19 | 1014.8 |
| 20260503214014 | 70 | 272 | 9.0 | 21.0 | 0.00 | 0.00 | 0.00 | 21 | 1014.8 |
| 20260503213915 | 70 | 287 | 9.0 | 21.0 | 0.00 | 0.00 | 0.00 | 19 | 1014.8 |
| 20260503213830 | 71 | 254 | 9.0 | 21.0 | 0.00 | 0.00 | 0.00 | 20 | 1014.8 |
| 20260503213815 | 71 | 248 | 9.0 | 21.0 | 0.00 | 0.00 | 0.00 | 20 | 1014.8 |
| 20260503213715 | 71 | 208 | 9.0 | 21.0 | 0.00 | 0.00 | 0.00 | 19 | 1014.9 |
| 20260503213616 | 71 | 224 | 8.0 | 21.0 | 0.00 | 0.00 | 0.00 | 18 | 1014.9 |
| 20260503213515 | 71 | 245 | 8.0 | 21.0 | 0.00 | 0.00 | 0.00 | 19 | 1014.9 |
| 20260503213437 | 71 | 269 | 7.0 | 21.0 | 0.00 | 0.00 | 0.00 | 19 | 1014.9 |
| 20260503213311 | 71 | 257 | 6.0 | 21.0 | 0.00 | 0.00 | 0.00 | 19 | 1014.9 |
| 20260503213212 | 71 | 226 | 5.0 | 21.0 | 0.00 | 0.00 | 0.00 | 18 | 1015.1 |
| 20260503213120 | 71 | 288 | 5.0 | 18.0 | 0.00 | 0.00 | 0.00 | 18 | 1015.1 |
| 20260503212911 | 71 | 277 | 4.0 | 11.0 | 0.00 | 0.00 | 0.00 | 18 | 1014.9 |
| 20260503212824 | 71 | 269 | 5.0 | 13.0 | 0.00 | 0.00 | 0.00 | 18 | 1014.8 |
| 20260503212811 | 71 | 289 | 5.0 | 13.0 | 0.00 | 0.00 | 0.00 | 18 | 1014.8 |
| 20260503212711 | 71 | 304 | 5.0 | 13.0 | 0.00 | 0.00 | 0.00 | 17 | 1014.8 |
| 20260503212611 | 71 | 276 | 5.0 | 13.0 | 0.00 | 0.00 | 0.00 | 18 | 1014.8 |
| 20260503212513 | 71 | 297 | 5.0 | 13.0 | 0.00 | 0.00 | 0.00 | 18 | 1014.8 |
| 20260503212432 | 71 | 265 | 5.0 | 13.0 | 0.00 | 0.00 | 0.00 | 18 | 1014.8 |
| 20260503212311 | 71 | 344 | 6.0 | 13.0 | 0.00 | 0.00 | 0.00 | 19 | 1014.8 |
| 20260503212226 | 71 | 0 | 6.0 | 13.0 | 0.00 | 0.00 | 0.00 | 17 | 1014.9 |
| 20260503211923 | 71 | 355 | 6.0 | 18.0 | 0.00 | 0.00 | 0.00 | 18 | 1014.9 |
| 20260503211916 | 71 | 5 | 6.0 | 18.0 | 0.00 | 0.00 | 0.00 | 17 | 1014.9 |
| 20260503211711 | 71 | 333 | 6.0 | 18.0 | 0.00 | 0.00 | 0.00 | 17 | 1014.9 |
| 20260503211611 | 71 | 329 | 7.0 | 18.0 | 0.00 | 0.00 | 0.00 | 19 | 1014.9 |
| 20260503211507 | 70 | 5 | 7.0 | 18.0 | 0.00 | 0.00 | 0.00 | 19 | 1014.9 |
| 20260503211407 | 70 | 277 | 8.0 | 18.0 | 0.00 | 0.00 | 0.00 | 18 | 1014.9 |
| 20260503211324 | 70 | 342 | 10.0 | 26.0 | 0.00 | 0.00 | 0.00 | 17 | 1015.1 |
| 20260503211307 | 70 | 314 | 10.0 | 27.0 | 0.00 | 0.00 | 0.00 | 18 | 1015.1 |
| 20260503211207 | 70 | 345 | 10.0 | 30.0 | 0.00 | 0.00 | 0.00 | 18 | 1015.1 |
| 20260503211120 | 70 | 319 | 11.0 | 30.0 | 0.00 | 0.00 | 0.00 | 18 | 1015.1 |
| 20260503210824 | 70 | 285 | 12.0 | 30.0 | 0.00 | 0.00 | 0.00 | 16 | 1015.2 |
| 20260503210807 | 70 | 306 | 12.0 | 30.0 | 0.00 | 0.00 | 0.00 | 16 | 1015.2 |
| 20260503210715 | 70 | 289 | 13.0 | 30.0 | 0.00 | 0.00 | 0.00 | 16 | 1015.3 |
| 20260503210507 | 71 | 309 | 13.0 | 30.0 | 0.00 | 0.00 | 0.00 | 16 | 1015.3 |
| 20260503210407 | 71 | 302 | 13.0 | 30.0 | 0.00 | 0.00 | 0.00 | 17 | 1015.4 |
| 20260503210324 | 71 | 298 | 12.0 | 30.0 | 0.00 | 0.00 | 0.00 | 17 | 1015.3 |
| 20260503210307 | 71 | 277 | 12.0 | 30.0 | 0.00 | 0.00 | 0.00 | 17 | 1015.3 |
| 20260503210215 | 71 | 287 | 11.0 | 24.0 | 0.00 | 0.00 | 0.00 | 15 | 1015.2 |
| 20260503210025 | 71 | 277 | 11.0 | 24.0 | 0.00 | 0.00 | 0.00 | 15 | 1015.2 |
| 20260503210018 | 71 | 263 | 10.0 | 24.0 | 0.00 | 0.00 | 0.00 | 16 | 1015.2 |
| 20260503205707 | 71 | 257 | 8.0 | 21.0 | 0.00 | 0.00 | 0.00 | 18 | 1015.2 |
| 20260503205603 | 71 | 273 | 8.0 | 18.0 | 0.00 | 0.00 | 0.00 | 18 | 1015.1 |
| 20260503205504 | 71 | 336 | 7.0 | 18.0 | 0.00 | 0.00 | 0.00 | 18 | 1015.2 |
| 20260503205415 | 71 | 307 | 7.0 | 18.0 | 0.00 | 0.00 | 0.00 | 18 | 1015.3 |
| 20260503205409 | 71 | 316 | 6.0 | 18.0 | 0.00 | 0.00 | 0.00 | 18 | 1015.2 |
| 20260503205204 | 72 | 266 | 6.0 | 18.0 | 0.00 | 0.00 | 0.00 | 17 | 1015.3 |
| 20260503205103 | 72 | 292 | 5.0 | 18.0 | 0.00 | 0.00 | 0.00 | 17 | 1015.3 |
| 20260503205003 | 72 | 275 | 4.0 | 10.0 | 0.00 | 0.00 | 0.00 | 17 | 1015.3 |
| 20260503204903 | 72 | 260 | 4.0 | 10.0 | 0.00 | 0.00 | 0.00 | 15 | 1015.4 |
| 20260503204824 | 72 | 309 | 4.0 | 10.0 | 0.00 | 0.00 | 0.00 | 15 | 1015.3 |
| 20260503204803 | 72 | 324 | 4.0 | 10.0 | 0.00 | 0.00 | 0.00 | 15 | 1015.3 |
| 20260503204704 | 73 | 277 | 3.0 | 10.0 | 0.00 | 0.00 | 0.00 | 16 | 1015.3 |
| 20260503204603 | 73 | 255 | 3.0 | 10.0 | 0.00 | 0.00 | 0.00 | 16 | 1015.3 |
| 20260503204510 | 73 | 300 | 2.0 | 10.0 | 0.00 | 0.00 | 0.00 | 14 | 1015.3 |
| 20260503204326 | 74 | 304 | 1.0 | 10.0 | 0.00 | 0.00 | 0.00 | 15 | 1015.3 |
| 20260503204303 | 74 | 295 | 1.0 | 4.0 | 0.00 | 0.00 | 0.00 | 15 | 1015.3 |
| 20260503204204 | 74 | 266 | 1.0 | 7.0 | 0.00 | 0.00 | 0.00 | 16 | 1015.3 |
| 20260503204110 | 74 | 263 | 1.0 | 7.0 | 0.00 | 0.00 | 0.00 | 15 | 1015.3 |
| 20260503203903 | 74 | 144 | 2.0 | 7.0 | 0.00 | 0.00 | 0.00 | 15 | 1015.3 |
| 20260503203825 | 74 | 144 | 2.0 | 7.0 | 0.00 | 0.00 | 0.00 | 15 | 1015.3 |
| 20260503203803 | 74 | 144 | 2.0 | 7.0 | 0.00 | 0.00 | 0.00 | 16 | 1015.3 |
| 20260503203706 | 74 | 144 | 2.0 | 7.0 | 0.00 | 0.00 | 0.00 | 14 | 1015.3 |
| 20260503203458 | 74 | 144 | 2.0 | 7.0 | 0.00 | 0.00 | 0.00 | 14 | 1015.3 |
| 20260503203359 | 75 | 144 | 3.0 | 7.0 | 0.00 | 0.00 | 0.00 | 14 | 1015.2 |
| 20260503203324 | 75 | 144 | 3.0 | 7.0 | 0.00 | 0.00 | 0.00 | 15 | 1015.3 |
| 20260503203300 | 75 | 140 | 3.0 | 7.0 | 0.00 | 0.00 | 0.00 | 14 | 1015.3 |
| 20260503203200 | 75 | 144 | 3.0 | 6.0 | 0.00 | 0.00 | 0.00 | 15 | 1015.3 |
| 20260503203059 | 75 | 170 | 3.0 | 8.0 | 0.00 | 0.00 | 0.00 | 15 | 1015.2 |
| 20260503202959 | 75 | 88 | 3.0 | 8.0 | 0.00 | 0.00 | 0.00 | 13 | 1015.2 |
| 20260503202900 | 76 | 82 | 3.0 | 11.0 | 0.00 | 0.00 | 0.00 | 13 | 1015.2 |
| 20260503202824 | 76 | 82 | 3.0 | 11.0 | 0.00 | 0.00 | 0.00 | 14 | 1015.2 |
| 20260503202759 | 76 | 63 | 3.0 | 11.0 | 0.00 | 0.00 | 0.00 | 14 | 1015.2 |
| 20260503202659 | 76 | 53 | 3.0 | 11.0 | 0.00 | 0.00 | 0.00 | 14 | 1015.2 |
| 20260503202606 | 76 | 145 | 4.0 | 11.0 | 0.00 | 0.00 | 0.00 | 15 | 1015.2 |
| 20260503202432 | 76 | 145 | 4.0 | 11.0 | 0.00 | 0.00 | 0.00 | 14 | 1015.3 |
| 20260503202259 | 76 | 119 | 4.0 | 11.0 | 0.00 | 0.00 | 0.00 | 14 | 1015.2 |
| 20260503202159 | 76 | 86 | 4.0 | 11.0 | 0.00 | 0.00 | 0.00 | 14 | 1015.2 |
| 20260503202059 | 76 | 86 | 4.0 | 11.0 | 0.00 | 0.00 | 0.00 | 14 | 1015.2 |
| 20260503201959 | 76 | 89 | 4.0 | 11.0 | 0.00 | 0.00 | 0.00 | 16 | 1015.2 |
| 20260503201900 | 76 | 126 | 5.0 | 13.0 | 0.00 | 0.00 | 0.00 | 15 | 1015.2 |
| 20260503201826 | 76 | 61 | 5.0 | 13.0 | 0.00 | 0.00 | 0.00 | 15 | 1015.3 |
| 20260503201755 | 76 | 147 | 5.0 | 13.0 | 0.00 | 0.00 | 0.00 | 15 | 1015.3 |
| 20260503201703 | 76 | 141 | 5.0 | 13.0 | 0.00 | 0.00 | 0.00 | 15 | 1015.3 |
| 20260503201456 | 75 | 105 | 4.0 | 13.0 | 0.00 | 0.00 | 0.00 | 18 | 1015.4 |
| 20260503201357 | 75 | 13 | 4.0 | 13.0 | 0.00 | 0.00 | 0.00 | 16 | 1015.3 |
| 20260503201325 | 75 | 13 | 5.0 | 13.0 | 0.00 | 0.00 | 0.00 | 16 | 1015.3 |
| 20260503201254 | 75 | 13 | 5.0 | 13.0 | 0.00 | 0.00 | 0.00 | 16 | 1015.3 |
| 20260503201156 | 75 | 94 | 5.0 | 13.0 | 0.00 | 0.00 | 0.00 | 16 | 1015.4 |
| 20260503201120 | 75 | 119 | 5.0 | 13.0 | 0.00 | 0.00 | 0.00 | 16 | 1015.4 |
| 20260503201006 | 75 | 90 | 5.0 | 11.0 | 0.00 | 0.00 | 0.00 | 14 | 1015.5 |
| 20260503200655 | 75 | 88 | 4.0 | 10.0 | 0.00 | 0.00 | 0.00 | 14 | 1015.5 |
| 20260503200555 | 75 | 155 | 5.0 | 10.0 | 0.00 | 0.00 | 0.00 | 15 | 1015.4 |
| 20260503200456 | 74 | 124 | 5.0 | 13.0 | 0.00 | 0.00 | 0.00 | 16 | 1015.5 |
| 20260503200354 | 74 | 165 | 5.0 | 13.0 | 0.00 | 0.00 | 0.00 | 15 | 1015.6 |
| 20260503200325 | 74 | 175 | 6.0 | 13.0 | 0.00 | 0.00 | 0.00 | 15 | 1015.5 |
| 20260503200255 | 74 | 134 | 6.0 | 14.0 | 0.00 | 0.00 | 0.00 | 15 | 1015.5 |
| 20260503200203 | 74 | 128 | 6.0 | 14.0 | 0.00 | 0.00 | 0.00 | 15 | 1015.5 |
| 20260503195956 | 74 | 109 | 6.0 | 14.0 | 0.00 | 0.00 | 0.00 | 17 | 1015.6 |
| 20260503195852 | 74 | 94 | 7.0 | 14.0 | 0.00 | 0.00 | 0.00 | 17 | 1015.5 |
| 20260503195825 | 73 | 123 | 7.0 | 14.0 | 0.00 | 0.00 | 0.00 | 16 | 1015.5 |
| 20260503195751 | 73 | 128 | 7.0 | 14.0 | 0.00 | 0.00 | 0.00 | 17 | 1015.6 |
| 20260503195651 | 73 | 145 | 7.0 | 14.0 | 0.00 | 0.00 | 0.00 | 17 | 1015.6 |
| 20260503195552 | 73 | 134 | 8.0 | 15.0 | 0.00 | 0.00 | 0.00 | 15 | 1015.6 |
| 20260503195458 | 73 | 149 | 7.0 | 15.0 | 0.00 | 0.00 | 0.00 | 17 | 1015.6 |
| 20260503195325 | 73 | 126 | 7.0 | 15.0 | 0.00 | 0.00 | 0.00 | 15 | 1015.6 |
| 20260503195251 | 73 | 123 | 8.0 | 15.0 | 0.00 | 0.00 | 0.00 | 15 | 1015.8 |
| 20260503195151 | 73 | 158 | 8.0 | 15.0 | 0.00 | 0.00 | 0.00 | 16 | 1015.6 |
| 20260503195049 | 72 | 141 | 8.0 | 15.0 | 0.00 | 0.00 | 0.00 | 16 | 1015.6 |
| 20260503195013 | 72 | 150 | 7.0 | 15.0 | 0.00 | 0.00 | 0.00 | 16 | 1015.8 |
| 20260503194900 | 72 | 159 | 7.0 | 15.0 | 0.00 | 0.00 | 0.00 | 16 | 1015.8 |
| 20260503194548 | 72 | 152 | 7.0 | 15.0 | 0.00 | 0.00 | 0.00 | 17 | 1015.8 |
| 20260503194449 | 72 | 117 | 7.0 | 15.0 | 0.00 | 0.00 | 0.00 | 16 | 1015.8 |
| 20260503194349 | 72 | 113 | 7.0 | 15.0 | 0.00 | 0.00 | 0.00 | 16 | 1015.8 |
| 20260503194324 | 72 | 137 | 6.0 | 15.0 | 0.00 | 0.00 | 0.00 | 16 | 1015.8 |
| 20260503194249 | 72 | 148 | 6.0 | 15.0 | 0.00 | 0.00 | 0.00 | 16 | 1015.8 |
| 20260503194149 | 72 | 165 | 5.0 | 15.0 | 0.00 | 0.00 | 0.00 | 17 | 1015.8 |
| 20260503194049 | 72 | 145 | 5.0 | 15.0 | 0.00 | 0.00 | 0.00 | 17 | 1015.8 |
| 20260503193948 | 72 | 198 | 5.0 | 15.0 | 0.00 | 0.00 | 0.00 | 19 | 1015.8 |
| 20260503193849 | 72 | 149 | 5.0 | 15.0 | 0.00 | 0.00 | 0.00 | 19 | 1015.8 |
| 20260503193825 | 72 | 211 | 4.0 | 15.0 | 0.00 | 0.00 | 0.00 | 19 | 1015.8 |
| 20260503193748 | 72 | 182 | 4.0 | 15.0 | 0.00 | 0.00 | 0.00 | 19 | 1015.8 |
| 20260503193649 | 72 | 177 | 4.0 | 15.0 | 0.00 | 0.00 | 0.00 | 17 | 1015.8 |
| 20260503193548 | 72 | 162 | 3.0 | 15.0 | 0.00 | 0.00 | 0.00 | 17 | 1015.6 |
| 20260503193445 | 72 | 190 | 3.0 | 8.0 | 0.00 | 0.00 | 0.00 | 16 | 1015.6 |
| 20260503193432 | 72 | 111 | 3.0 | 5.0 | 0.00 | 0.00 | 0.00 | 15 | 1015.6 |
| 20260503193243 | 72 | 34 | 3.0 | 6.0 | 0.00 | 0.00 | 0.00 | 16 | 1015.8 |
| 20260503193142 | 72 | 9 | 3.0 | 6.0 | 0.00 | 0.00 | 0.00 | 17 | 1015.8 |
| 20260503193041 | 72 | 340 | 3.0 | 6.0 | 0.00 | 0.00 | 0.00 | 16 | 1015.8 |
| 20260503192944 | 72 | 212 | 3.0 | 6.0 | 0.00 | 0.00 | 0.00 | 16 | 1015.9 |
| 20260503192826 | 72 | 240 | 3.0 | 6.0 | 0.00 | 0.00 | 0.00 | 16 | 1015.9 |
| 20260503192737 | 72 | 252 | 3.0 | 11.0 | 0.00 | 0.00 | 0.00 | 17 | 1015.9 |
| 20260503192647 | 72 | 271 | 3.0 | 11.0 | 0.00 | 0.00 | 0.00 | 16 | 1015.9 |
| 20260503192345 | 72 | 188 | 4.0 | 11.0 | 0.00 | 0.00 | 0.00 | 17 | 1016.0 |
| 20260503192341 | 72 | 207 | 4.0 | 11.0 | 0.00 | 0.00 | 0.00 | 17 | 1016.0 |
| 20260503192154 | 72 | 167 | 4.0 | 11.0 | 0.00 | 0.00 | 0.00 | 19 | 1016.0 |
| 20260503191826 | 72 | 209 | 5.0 | 11.0 | 0.00 | 0.00 | 0.00 | 19 | 1016.0 |
| 20260503191733 | 72 | 189 | 5.0 | 12.0 | 0.00 | 0.00 | 0.00 | 16 | 1016.1 |
| 20260503191634 | 72 | 194 | 5.0 | 12.0 | 0.00 | 0.00 | 0.00 | 17 | 1016.0 |
| 20260503191533 | 72 | 240 | 6.0 | 12.0 | 0.00 | 0.00 | 0.00 | 17 | 1016.1 |
| 20260503191433 | 72 | 236 | 6.0 | 12.0 | 0.00 | 0.00 | 0.00 | 16 | 1016.1 |
| 20260503191333 | 72 | 239 | 6.0 | 12.0 | 0.00 | 0.00 | 0.00 | 16 | 1016.1 |
| 20260503191324 | 72 | 254 | 6.0 | 12.0 | 0.00 | 0.00 | 0.00 | 16 | 1016.1 |
| 20260503191232 | 72 | 280 | 6.0 | 15.0 | 0.00 | 0.00 | 0.00 | 16 | 1016.1 |
| 20260503191140 | 72 | 182 | 6.0 | 15.0 | 0.00 | 0.00 | 0.00 | 15 | 1016.1 |
| 20260503190939 | 72 | 247 | 6.0 | 15.0 | 0.00 | 0.00 | 0.00 | 16 | 1016.1 |
| 20260503190826 | 72 | 232 | 6.0 | 15.0 | 0.00 | 0.00 | 0.00 | 15 | 1016.2 |
| 20260503190735 | 72 | 251 | 6.0 | 15.0 | 0.00 | 0.00 | 0.00 | 15 | 1016.2 |
| 20260503190526 | 72 | 235 | 6.0 | 15.0 | 0.00 | 0.00 | 0.00 | 15 | 1016.1 |
| 20260503190425 | 72 | 286 | 6.0 | 15.0 | 0.00 | 0.00 | 0.00 | 17 | 1016.1 |
| 20260503190323 | 72 | 316 | 6.0 | 15.0 | 0.00 | 0.00 | 0.00 | 14 | 1016.2 |
| 20260503190219 | 73 | 314 | 6.0 | 13.0 | 0.00 | 0.00 | 0.00 | 15 | 1016.1 |
| 20260503190119 | 73 | 309 | 6.0 | 13.0 | 0.00 | 0.00 | 0.00 | 16 | 1016.1 |
| 20260503190019 | 73 | 311 | 6.0 | 13.0 | 0.00 | 0.00 | 0.00 | 15 | 1016.1 |
| 20260503185935 | 73 | 316 | 6.0 | 13.0 | 0.00 | 0.00 | 0.00 | 16 | 1016.1 |
| 20260503185928 | 73 | 5 | 6.0 | 13.0 | 0.00 | 0.00 | 0.00 | 16 | 1016.1 |
| 20260503185616 | 73 | 26 | 7.0 | 15.0 | 0.00 | 0.00 | 0.00 | 15 | 1016.2 |
| 20260503185530 | 73 | 321 | 7.0 | 15.0 | 0.00 | 0.00 | 0.00 | 16 | 1016.1 |
| 20260503185523 | 73 | 32 | 7.0 | 15.0 | 0.00 | 0.00 | 0.00 | 15 | 1016.2 |
| 20260503185208 | 73 | 27 | 7.0 | 15.0 | 0.00 | 0.00 | 0.00 | 16 | 1016.1 |
| 20260503185108 | 73 | 342 | 7.0 | 15.0 | 0.00 | 0.00 | 0.00 | 14 | 1016.2 |
| 20260503185006 | 73 | 325 | 7.0 | 15.0 | 0.00 | 0.00 | 0.00 | 15 | 1016.2 |
| 20260503184918 | 73 | 282 | 7.0 | 15.0 | 0.00 | 0.00 | 0.00 | 14 | 1016.4 |
| 20260503184912 | 73 | 343 | 7.0 | 15.0 | 0.00 | 0.00 | 0.00 | 16 | 1016.4 |
| 20260503184703 | 73 | 348 | 7.0 | 15.0 | 0.00 | 0.00 | 0.00 | 14 | 1016.4 |
| 20260503184602 | 73 | 5 | 7.0 | 15.0 | 0.00 | 0.00 | 0.00 | 15 | 1016.4 |
| 20260503184502 | 73 | 305 | 8.0 | 15.0 | 0.00 | 0.00 | 0.00 | 16 | 1016.4 |
| 20260503184402 | 73 | 327 | 8.0 | 17.0 | 0.00 | 0.00 | 0.00 | 17 | 1016.4 |
| 20260503184259 | 73 | 346 | 8.0 | 17.0 | 0.00 | 0.00 | 0.00 | 18 | 1016.4 |
| 20260503184156 | 73 | 346 | 7.0 | 17.0 | 0.00 | 0.00 | 0.00 | 15 | 1016.5 |
| 20260503184102 | 73 | 295 | 8.0 | 17.0 | 0.00 | 0.00 | 0.00 | 15 | 1016.4 |
| 20260503183854 | 73 | 63 | 8.0 | 17.0 | 0.00 | 0.00 | 0.00 | 14 | 1016.5 |
| 20260503183754 | 73 | 350 | 8.0 | 17.0 | 0.00 | 0.00 | 0.00 | 14 | 1016.6 |
| 20260503183648 | 73 | 12 | 8.0 | 17.0 | 0.00 | 0.00 | 0.00 | 14 | 1016.5 |
| 20260503183549 | 73 | 331 | 8.0 | 17.0 | 0.00 | 0.00 | 0.00 | 14 | 1016.6 |
| 20260503183448 | 73 | 307 | 8.0 | 15.0 | 0.00 | 0.00 | 0.00 | 15 | 1016.5 |
| 20260503183400 | 73 | 321 | 9.0 | 15.0 | 0.00 | 0.00 | 0.00 | 14 | 1016.6 |
| 20260503183248 | 73 | 306 | 10.0 | 18.0 | 0.00 | 0.00 | 0.00 | 15 | 1016.7 |
| 20260503183143 | 74 | 5 | 9.0 | 18.0 | 0.00 | 0.00 | 0.00 | 14 | 1016.6 |
| 20260503183042 | 74 | 248 | 9.0 | 18.0 | 0.00 | 0.00 | 0.00 | 14 | 1016.7 |
| 20260503182944 | 74 | 270 | 9.0 | 18.0 | 0.00 | 0.00 | 0.00 | 15 | 1016.8 |
| 20260503182842 | 74 | 317 | 10.0 | 18.0 | 0.00 | 0.00 | 0.00 | 14 | 1016.8 |
| 20260503182743 | 74 | 328 | 10.0 | 18.0 | 0.00 | 0.00 | 0.00 | 14 | 1016.7 |
| 20260503182636 | 74 | 283 | 10.0 | 18.0 | 0.00 | 0.00 | 0.00 | 15 | 1016.8 |
| 20260503182536 | 75 | 342 | 9.0 | 18.0 | 0.00 | 0.00 | 0.00 | 15 | 1016.7 |
| 20260503182436 | 75 | 304 | 9.0 | 18.0 | 0.00 | 0.00 | 0.00 | 16 | 1016.8 |
| 20260503182336 | 75 | 350 | 9.0 | 18.0 | 0.00 | 0.00 | 0.00 | 14 | 1016.8 |
| 20260503182236 | 76 | 319 | 9.0 | 15.0 | 0.00 | 0.00 | 0.00 | 15 | 1016.8 |
| 20260503182139 | 76 | 5 | 9.0 | 15.0 | 0.00 | 0.00 | 0.00 | 15 | 1016.8 |
| 20260503181939 | 76 | 313 | 8.0 | 15.0 | 0.00 | 0.00 | 0.00 | 19 | 1016.8 |
| 20260503181734 | 75 | 0 | 6.0 | 15.0 | 0.00 | 0.00 | 0.00 | 17 | 1016.8 |
| 20260503181730 | 75 | 5 | 6.0 | 15.0 | 0.00 | 0.00 | 0.00 | 17 | 1016.8 |
| 20260503181627 | 75 | 19 | 6.0 | 15.0 | 0.00 | 0.00 | 0.00 | 17 | 1016.8 |
| 20260503181524 | 75 | 330 | 6.0 | 15.0 | 0.00 | 0.00 | 0.00 | 16 | 1017.0 |
| 20260503181424 | 75 | 328 | 6.0 | 15.0 | 0.00 | 0.00 | 0.00 | 15 | 1017.0 |
| 20260503181324 | 75 | 303 | 5.0 | 15.0 | 0.00 | 0.00 | 0.00 | 15 | 1017.1 |
| 20260503181235 | 75 | 301 | 5.0 | 14.0 | 0.00 | 0.00 | 0.00 | 17 | 1017.2 |
| 20260503181225 | 75 | 261 | 5.0 | 14.0 | 0.00 | 0.00 | 0.00 | 17 | 1017.2 |
| 20260503181120 | 75 | 34 | 5.0 | 12.0 | 0.00 | 0.00 | 0.00 | 19 | 1017.2 |
| 20260503181020 | 75 | 343 | 5.0 | 12.0 | 0.00 | 0.00 | 0.00 | 18 | 1017.2 |
| 20260503180921 | 75 | 279 | 6.0 | 14.0 | 0.00 | 0.00 | 0.00 | 17 | 1017.2 |
| 20260503180822 | 75 | 31 | 7.0 | 14.0 | 0.00 | 0.00 | 0.00 | 18 | 1017.3 |
| 20260503180734 | 75 | 336 | 7.0 | 14.0 | 0.00 | 0.00 | 0.00 | 14 | 1017.3 |
| 20260503180718 | 75 | 346 | 7.0 | 14.0 | 0.00 | 0.00 | 0.00 | 14 | 1017.3 |
| 20260503180617 | 75 | 329 | 7.0 | 14.0 | 0.00 | 0.00 | 0.00 | 15 | 1017.3 |
| 20260503180529 | 75 | 296 | 7.0 | 14.0 | 0.00 | 0.00 | 0.00 | 19 | 1017.3 |
| 20260503180232 | 75 | 289 | 7.0 | 14.0 | 0.00 | 0.00 | 0.00 | 15 | 1017.4 |
| 20260503180213 | 75 | 306 | 7.0 | 14.0 | 0.00 | 0.00 | 0.00 | 15 | 1017.4 |
| 20260503180106 | 74 | 276 | 7.0 | 14.0 | 0.00 | 0.00 | 0.00 | 16 | 1017.4 |
| 20260503180006 | 74 | 271 | 7.0 | 14.0 | 0.00 | 0.00 | 0.00 | 17 | 1017.4 |
| 20260503175907 | 74 | 330 | 7.0 | 14.0 | 0.00 | 0.00 | 0.00 | 15 | 1017.4 |
| 20260503175807 | 74 | 271 | 6.0 | 14.0 | 0.00 | 0.00 | 0.00 | 16 | 1017.4 |
| 20260503175732 | 74 | 249 | 6.0 | 14.0 | 0.00 | 0.00 | 0.00 | 16 | 1017.4 |
| 20260503175705 | 74 | 292 | 6.0 | 14.0 | 0.00 | 0.00 | 0.00 | 16 | 1017.4 |
| 20260503175600 | 74 | 263 | 6.0 | 14.0 | 0.00 | 0.00 | 0.00 | 18 | 1017.5 |
| 20260503175501 | 73 | 247 | 6.0 | 14.0 | 0.00 | 0.00 | 0.00 | 19 | 1017.5 |
| 20260503175400 | 73 | 350 | 7.0 | 14.0 | 0.00 | 0.00 | 0.00 | 16 | 1017.5 |
| 20260503175339 | 73 | 297 | 7.0 | 14.0 | 0.00 | 0.00 | 0.00 | 17 | 1017.5 |
| 20260503175200 | 73 | 244 | 8.0 | 14.0 | 0.00 | 0.00 | 0.00 | 18 | 1017.7 |
| 20260503175101 | 73 | 313 | 8.0 | 14.0 | 0.00 | 0.00 | 0.00 | 19 | 1017.5 |
| 20260503174854 | 72 | 324 | 8.0 | 14.0 | 0.00 | 0.00 | 0.00 | 17 | 1017.7 |
| 20260503174754 | 72 | 288 | 8.0 | 14.0 | 0.00 | 0.00 | 0.00 | 16 | 1017.7 |
| 20260503174728 | 72 | 292 | 8.0 | 14.0 | 0.00 | 0.00 | 0.00 | 16 | 1017.8 |
| 20260503174654 | 72 | 281 | 8.0 | 14.0 | 0.00 | 0.00 | 0.00 | 16 | 1017.8 |
| 20260503174557 | 72 | 249 | 8.0 | 14.0 | 0.00 | 0.00 | 0.00 | 17 | 1017.8 |
| 20260503174440 | 72 | 303 | 8.0 | 14.0 | 0.00 | 0.00 | 0.00 | 16 | 1017.8 |
| 20260503174148 | 72 | 301 | 8.0 | 14.0 | 0.00 | 0.00 | 0.00 | 18 | 1017.8 |
| 20260503174049 | 72 | 284 | 8.0 | 14.0 | 0.00 | 0.00 | 0.00 | 17 | 1017.9 |
| 20260503173843 | 71 | 283 | 9.0 | 14.0 | 0.00 | 0.00 | 0.00 | 20 | 1017.9 |
| 20260503173742 | 71 | 331 | 9.0 | 14.0 | 0.00 | 0.00 | 0.00 | 21 | 1017.9 |
| 20260503173730 | 71 | 240 | 9.0 | 14.0 | 0.00 | 0.00 | 0.00 | 21 | 1017.9 |
| 20260503173642 | 71 | 320 | 10.0 | 14.0 | 0.00 | 0.00 | 0.00 | 19 | 1018.0 |
| 20260503173539 | 71 | 311 | 10.0 | 15.0 | 0.00 | 0.00 | 0.00 | 19 | 1018.0 |
| 20260503173440 | 70 | 319 | 10.0 | 15.0 | 0.00 | 0.00 | 0.00 | 17 | 1018.0 |
| 20260503173338 | 70 | 349 | 10.0 | 15.0 | 0.00 | 0.00 | 0.00 | 18 | 1018.0 |
| 20260503173238 | 70 | 294 | 9.0 | 15.0 | 0.00 | 0.00 | 0.00 | 19 | 1018.0 |
| 20260503173228 | 70 | 302 | 9.0 | 15.0 | 0.00 | 0.00 | 0.00 | 19 | 1018.0 |
| 20260503173136 | 69 | 313 | 9.0 | 15.0 | 0.00 | 0.00 | 0.00 | 17 | 1018.1 |
| 20260503173033 | 69 | 313 | 9.0 | 15.0 | 0.00 | 0.00 | 0.00 | 18 | 1018.3 |
| 20260503172930 | 69 | 325 | 9.0 | 15.0 | 0.00 | 0.00 | 0.00 | 18 | 1018.1 |
| 20260503172830 | 69 | 292 | 8.0 | 15.0 | 0.00 | 0.00 | 0.00 | 17 | 1018.1 |
| 20260503172730 | 69 | 320 | 8.0 | 15.0 | 0.00 | 0.00 | 0.00 | 17 | 1018.3 |
| 20260503172726 | 69 | 304 | 8.0 | 15.0 | 0.00 | 0.00 | 0.00 | 17 | 1018.3 |
| 20260503172632 | 69 | 303 | 7.0 | 14.0 | 0.00 | 0.00 | 0.00 | 17 | 1018.3 |
| 20260503172425 | 69 | 289 | 7.0 | 14.0 | 0.00 | 0.00 | 0.00 | 18 | 1018.4 |
| 20260503172324 | 69 | 290 | 6.0 | 13.0 | 0.00 | 0.00 | 0.00 | 19 | 1018.3 |
| 20260503172228 | 69 | 285 | 6.0 | 13.0 | 0.00 | 0.00 | 0.00 | 20 | 1018.3 |
| 20260503172224 | 69 | 255 | 6.0 | 13.0 | 0.00 | 0.00 | 0.00 | 20 | 1018.3 |
| 20260503172124 | 69 | 270 | 5.0 | 13.0 | 0.00 | 0.00 | 0.00 | 18 | 1018.3 |
| 20260503172021 | 68 | 280 | 5.0 | 13.0 | 0.00 | 0.00 | 0.00 | 19 | 1018.3 |
| 20260503171920 | 68 | 297 | 5.0 | 12.0 | 0.00 | 0.00 | 0.00 | 19 | 1018.4 |
| 20260503171820 | 68 | 263 | 4.0 | 12.0 | 0.00 | 0.00 | 0.00 | 19 | 1018.4 |
| 20260503171729 | 68 | 280 | 4.0 | 10.0 | 0.00 | 0.00 | 0.00 | 20 | 1018.4 |
| 20260503171724 | 68 | 277 | 4.0 | 10.0 | 0.00 | 0.00 | 0.00 | 20 | 1018.4 |
| 20260503171517 | 68 | 306 | 4.0 | 9.0 | 0.00 | 0.00 | 0.00 | 20 | 1018.4 |
| 20260503171417 | 68 | 293 | 4.0 | 9.0 | 0.00 | 0.00 | 0.00 | 23 | 1018.5 |
| 20260503171316 | 68 | 24 | 4.0 | 9.0 | 0.00 | 0.00 | 0.00 | 19 | 1018.4 |
| 20260503171227 | 68 | 89 | 4.0 | 9.0 | 0.00 | 0.00 | 0.00 | 20 | 1018.4 |
| 20260503171223 | 68 | 141 | 4.0 | 9.0 | 0.00 | 0.00 | 0.00 | 20 | 1018.4 |
| 20260503171016 | 68 | 20 | 4.0 | 9.0 | 0.00 | 0.00 | 0.00 | 22 | 1018.5 |
| 20260503170916 | 68 | 346 | 3.0 | 9.0 | 0.00 | 0.00 | 0.00 | 19 | 1018.5 |
| 20260503170816 | 68 | 167 | 3.0 | 9.0 | 0.00 | 0.00 | 0.00 | 20 | 1018.5 |
| 20260503170729 | 68 | 167 | 4.0 | 9.0 | 0.00 | 0.00 | 0.00 | 20 | 1018.5 |
| 20260503170415 | 68 | 64 | 3.0 | 7.0 | 0.00 | 0.00 | 0.00 | 20 | 1018.5 |
| 20260503170315 | 68 | 57 | 3.0 | 7.0 | 0.00 | 0.00 | 0.00 | 21 | 1018.5 |
| 20260503170226 | 68 | 82 | 3.0 | 8.0 | 0.00 | 0.00 | 0.00 | 24 | 1018.5 |
| 20260503170219 | 67 | 78 | 3.0 | 9.0 | 0.00 | 0.00 | 0.00 | 24 | 1018.5 |
| 20260503160200 | 67 | 233 | 1.0 | 5.0 | 0.00 | 0.00 | 0.00 | 21 | 1018.7 |
| 20260503160121 | 67 | 244 | 1.0 | 6.0 | 0.00 | 0.00 | 0.00 | 21 | 1018.7 |
| 20260503150958 | 62 | 227 | 1.0 | 5.0 | 0.00 | 0.00 | 0.00 | 28 | 1019.1 |
| 20260503150858 | 62 | 227 | 2.0 | 5.0 | 0.00 | 0.00 | 0.00 | 26 | 1019.1 |
| 20260503150759 | 62 | 225 | 2.0 | 5.0 | 0.00 | 0.00 | 0.00 | 25 | 1019.2 |
| 20260503150658 | 62 | 215 | 2.0 | 5.0 | 0.00 | 0.00 | 0.00 | 25 | 1019.2 |
| 20260503150552 | 62 | 216 | 1.0 | 5.0 | 0.00 | 0.00 | 0.00 | 27 | 1019.2 |
| 20260503150517 | 62 | 138 | 1.0 | 4.0 | 0.00 | 0.00 | 0.00 | 25 | 1019.1 |
| 20260503150452 | 62 | 143 | 1.0 | 3.0 | 0.00 | 0.00 | 0.00 | 25 | 1019.1 |
| 20260503150353 | 62 | 225 | 1.0 | 4.0 | 0.00 | 0.00 | 0.00 | 25 | 1019.1 |
| 20260503150253 | 62 | 225 | 2.0 | 4.0 | 0.00 | 0.00 | 0.00 | 25 | 1019.2 |
| 20260503150152 | 62 | 225 | 2.0 | 4.0 | 0.00 | 0.00 | 0.00 | 24 | 1019.3 |
| 20260503150117 | 62 | 225 | 3.0 | 5.0 | 0.00 | 0.00 | 0.00 | 25 | 1019.3 |
| 20260503140239 | 59 | 255 | 7.0 | 17.0 | 0.00 | 0.00 | 0.00 | 26 | 1019.7 |
| 20260503140140 | 59 | 229 | 7.0 | 17.0 | 0.00 | 0.00 | 0.00 | 27 | 1019.7 |
| 20260503131340 | 54 | 242 | 5.0 | 13.0 | 0.00 | 0.00 | 0.00 | 30 | 1019.2 |
| 20260503131304 | 54 | 254 | 5.0 | 13.0 | 0.00 | 0.00 | 0.00 | 30 | 1019.2 |
| 20260503131240 | 54 | 248 | 5.0 | 13.0 | 0.00 | 0.00 | 0.00 | 31 | 1019.3 |
| 20260503131141 | 54 | 313 | 4.0 | 10.0 | 0.00 | 0.00 | 0.00 | 31 | 1019.2 |
| 20260503131039 | 54 | 259 | 5.0 | 10.0 | 0.00 | 0.00 | 0.00 | 32 | 1019.3 |
| 20260503130940 | 53 | 285 | 5.0 | 13.0 | 0.00 | 0.00 | 0.00 | 32 | 1019.2 |
| 20260503130834 | 53 | 289 | 5.0 | 13.0 | 0.00 | 0.00 | 0.00 | 33 | 1019.3 |
| 20260503130757 | 53 | 319 | 5.0 | 13.0 | 0.00 | 0.00 | 0.00 | 33 | 1019.2 |
| 20260503130734 | 53 | 323 | 5.0 | 13.0 | 0.00 | 0.00 | 0.00 | 32 | 1019.2 |
| 20260503130641 | 53 | 217 | 5.0 | 13.0 | 0.00 | 0.00 | 0.00 | 32 | 1019.2 |
| 20260503130454 | 53 | 294 | 5.0 | 13.0 | 0.00 | 0.00 | 0.00 | 33 | 1019.2 |
| 20260503130446 | 53 | 292 | 5.0 | 13.0 | 0.00 | 0.00 | 0.00 | 33 | 1019.2 |
| 20260503120218 | 50 | 173 | 4.0 | 10.0 | 0.00 | 0.00 | 0.00 | 35 | 1018.5 |
| 20260503120143 | 50 | 169 | 4.0 | 10.0 | 0.00 | 0.00 | 0.00 | 35 | 1018.6 |
| 20260503120116 | 50 | 228 | 4.0 | 10.0 | 0.00 | 0.00 | 0.00 | 35 | 1018.6 |
| 20260503110730 | 49 | 247 | 4.0 | 10.0 | 0.00 | 0.00 | 0.00 | 38 | 1018.6 |
| 20260503110644 | 49 | 248 | 4.0 | 9.0 | 0.00 | 0.00 | 0.00 | 38 | 1018.6 |
| 20260503110630 | 49 | 234 | 4.0 | 9.0 | 0.00 | 0.00 | 0.00 | 37 | 1018.6 |
| 20260503110538 | 49 | 218 | 4.0 | 9.0 | 0.00 | 0.00 | 0.00 | 38 | 1018.6 |
| 20260503110330 | 50 | 202 | 4.0 | 7.0 | 0.00 | 0.00 | 0.00 | 37 | 1018.6 |
| 20260503110229 | 50 | 179 | 4.0 | 7.0 | 0.00 | 0.00 | 0.00 | 37 | 1018.6 |
| 20260503110143 | 50 | 205 | 4.0 | 8.0 | 0.00 | 0.00 | 0.00 | 37 | 1018.6 |
| 20260503110129 | 50 | 209 | 4.0 | 8.0 | 0.00 | 0.00 | 0.00 | 37 | 1018.6 |
| 20260503100243 | 51 | 229 | 5.0 | 10.0 | 0.00 | 0.00 | 0.00 | 35 | 1018.6 |
| 20260503100119 | 51 | 217 | 5.0 | 10.0 | 0.00 | 0.00 | 0.00 | 35 | 1018.6 |
| 20260503090507 | 53 | 215 | 4.0 | 11.0 | 0.00 | 0.00 | 0.00 | 32 | 1019.0 |
| 20260503090407 | 53 | 221 | 3.0 | 11.0 | 0.00 | 0.00 | 0.00 | 31 | 1019.0 |
| 20260503090309 | 53 | 208 | 3.0 | 7.0 | 0.00 | 0.00 | 0.00 | 31 | 1019.0 |
| 20260503090208 | 53 | 241 | 3.0 | 5.0 | 0.00 | 0.00 | 0.00 | 31 | 1019.0 |
| 20260503090109 | 53 | 218 | 3.0 | 5.0 | 0.00 | 0.00 | 0.00 | 31 | 1019.0 |
| 20260503081634 | 57 | 232 | 7.0 | 12.0 | 0.00 | 0.00 | 0.00 | 27 | 1018.8 |
| 20260503081541 | 57 | 231 | 6.0 | 12.0 | 0.00 | 0.00 | 0.00 | 27 | 1019.0 |
| 20260503081442 | 57 | 238 | 6.0 | 12.0 | 0.00 | 0.00 | 0.00 | 27 | 1018.8 |
| 20260503081235 | 57 | 252 | 7.0 | 12.0 | 0.00 | 0.00 | 0.00 | 27 | 1018.8 |
| 20260503081140 | 57 | 270 | 7.0 | 12.0 | 0.00 | 0.00 | 0.00 | 27 | 1019.0 |
| 20260503080927 | 57 | 292 | 7.0 | 13.0 | 0.00 | 0.00 | 0.00 | 26 | 1019.0 |
| 20260503080828 | 57 | 292 | 7.0 | 13.0 | 0.00 | 0.00 | 0.00 | 26 | 1019.0 |
| 20260503080728 | 57 | 255 | 7.0 | 13.0 | 0.00 | 0.00 | 0.00 | 26 | 1019.0 |
| 20260503080634 | 57 | 301 | 8.0 | 13.0 | 0.00 | 0.00 | 0.00 | 26 | 1019.0 |
| 20260503080627 | 57 | 236 | 8.0 | 13.0 | 0.00 | 0.00 | 0.00 | 26 | 1019.0 |
| 20260503080527 | 57 | 255 | 8.0 | 13.0 | 0.00 | 0.00 | 0.00 | 26 | 1019.0 |
| 20260503080422 | 57 | 259 | 8.0 | 13.0 | 0.00 | 0.00 | 0.00 | 26 | 1019.0 |
| 20260503080322 | 57 | 267 | 8.0 | 13.0 | 0.00 | 0.00 | 0.00 | 26 | 1019.0 |
| 20260503080234 | 57 | 238 | 8.0 | 13.0 | 0.00 | 0.00 | 0.00 | 26 | 1019.0 |
| 20260503080226 | 57 | 254 | 8.0 | 13.0 | 0.00 | 0.00 | 0.00 | 26 | 1019.0 |
| 20260503072900 | 54 | 281 | 4.0 | 10.0 | 0.00 | 0.00 | 0.00 | 27 | 1019.2 |
| 20260503072759 | 54 | 279 | 4.0 | 10.0 | 0.00 | 0.00 | 0.00 | 27 | 1019.2 |
| 20260503072658 | 54 | 265 | 4.0 | 9.0 | 0.00 | 0.00 | 0.00 | 28 | 1019.2 |
| 20260503072615 | 54 | 288 | 4.0 | 9.0 | 0.00 | 0.00 | 0.00 | 28 | 1019.2 |
| 20260503072604 | 54 | 292 | 4.0 | 9.0 | 0.00 | 0.00 | 0.00 | 28 | 1019.2 |
| 20260503072357 | 54 | 265 | 5.0 | 9.0 | 0.00 | 0.00 | 0.00 | 28 | 1019.2 |
| 20260503072256 | 54 | 302 | 6.0 | 10.0 | 0.00 | 0.00 | 0.00 | 27 | 1019.2 |
| 20260503072108 | 53 | 306 | 6.0 | 10.0 | 0.00 | 0.00 | 0.00 | 27 | 1019.2 |
| 20260503072048 | 53 | 286 | 6.0 | 10.0 | 0.00 | 0.00 | 0.00 | 27 | 1019.2 |
| 20260503071947 | 53 | 303 | 6.0 | 10.0 | 0.00 | 0.00 | 0.00 | 27 | 1019.3 |
| 20260503071848 | 53 | 296 | 6.0 | 10.0 | 0.00 | 0.00 | 0.00 | 27 | 1019.3 |
| 20260503071747 | 53 | 276 | 6.0 | 10.0 | 0.00 | 0.00 | 0.00 | 27 | 1019.3 |
| 20260503071653 | 52 | 273 | 6.0 | 10.0 | 0.00 | 0.00 | 0.00 | 26 | 1019.3 |
| 20260503071646 | 52 | 290 | 6.0 | 10.0 | 0.00 | 0.00 | 0.00 | 26 | 1019.3 |
| 20260503071442 | 51 | 272 | 5.0 | 10.0 | 0.00 | 0.00 | 0.00 | 26 | 1019.3 |
| 20260503071343 | 51 | 297 | 4.0 | 10.0 | 0.00 | 0.00 | 0.00 | 26 | 1019.3 |
| 20260503071241 | 51 | 304 | 4.0 | 9.0 | 0.00 | 0.00 | 0.00 | 26 | 1019.3 |
| 20260503071136 | 51 | 254 | 3.0 | 9.0 | 0.00 | 0.00 | 0.00 | 25 | 1019.3 |